GFSWCAN_sfc_thetae_000.txt.gz
Theta_e
303 304 304 305 305 306 306 306 306 306 307 307 307 308 308 308 307 306 307 309 301 294 296 299 299 295 295 294 289 294 296 297 295 291 290 290 288 291 293 297 296 299 298 300 302 299 295 312 310 306 316 327 322 319
303 303 304 304 305 305 306 306 306 306 306 307 307 307 308 307 307 306 303 310 309 297 296 302 302 303 301 299 295 296 294 297 296 295 294 294 292 291 291 291 303 294 303 301 303 304 319 317 318 324 324 320 318 320
302 303 303 304 304 305 305 305 306 306 306 307 307 307 307 307 308 307 304 310 307 299 299 301 298 305 307 305 305 295 298 299 299 304 298 296 290 294 287 290 293 301 304 300 302 308 312 314 318 320 320 320 321 322
302 302 303 304 304 304 304 305 305 306 306 307 307 306 307 307 308 306 304 309 305 300 292 296 306 302 309 308 306 302 302 303 302 300 297 296 292 298 292 294 293 296 299 300 301 307 312 313 316 317 318 320 320 321
302 303 303 303 304 304 303 303 304 305 306 307 307 307 306 307 307 307 306 311 311 299 292 295 303 305 306 305 304 304 304 301 299 295 296 293 295 296 296 295 292 297 296 294 299 302 303 313 313 315 319 318 321 320
302 302 302 303 303 303 303 303 304 305 306 306 307 306 306 306 307 305 300 308 311 309 295 292 302 301 304 304 303 302 302 301 299 296 295 297 300 298 292 291 297 299 301 302 300 304 305 308 316 317 318 319 321 320
302 302 302 303 303 303 303 303 305 306 306 306 306 306 306 306 306 301 299 303 303 306 296 291 294 301 303 303 302 301 303 300 298 297 295 295 295 297 293 289 296 300 301 303 304 302 302 309 311 314 318 320 319 322
301 302 302 302 303 303 303 304 305 306 306 306 306 307 306 306 305 303 311 307 305 301 300 291 292 296 303 298 296 303 298 298 298 297 297 294 296 295 291 295 297 298 299 301 302 305 304 306 311 312 316 317 317 318
301 302 302 302 302 303 303 304 305 305 306 306 306 307 307 305 303 305 306 307 307 301 293 293 289 289 301 298 297 299 300 291 298 294 294 296 293 290 294 295 297 298 298 299 302 304 304 304 308 310 311 315 314 316
301 301 302 302 302 303 303 304 305 305 305 306 307 305 301 304 307 308 305 300 299 299 298 292 299 292 298 295 293 295 296 292 289 293 297 293 292 297 299 299 300 300 301 302 300 300 303 304 307 309 308 309 313 314
300 301 301 302 302 303 304 305 305 304 305 306 301 300 306 310 306 303 296 295 296 293 297 297 298 294 300 291 289 293 290 292 287 292 291 290 290 297 302 300 301 302 303 303 306 305 306 308 307 308 308 309 309 313
300 301 301 302 302 303 304 305 304 306 306 303 302 305 307 304 300 293 293 295 293 291 296 296 296 298 299 296 289 289 286 290 284 295 291 288 295 301 302 303 302 304 304 303 304 305 306 308 308 309 309 310 311 312
300 300 301 301 302 303 304 304 304 305 306 309 303 300 298 298 289 288 286 289 291 296 297 297 295 296 298 295 288 288 284 285 290 288 287 290 293 298 301 304 304 304 304 305 304 305 307 307 308 308 309 311 313 315
300 300 301 301 302 304 304 304 305 307 307 300 296 288 293 289 291 293 292 295 297 297 298 298 295 295 297 290 289 285 289 287 285 284 285 290 290 295 298 303 303 304 306 307 305 306 305 306 306 309 310 312 312 314
300 300 301 303 304 303 303 303 304 310 306 298 297 289 292 296 298 298 299 298 300 301 300 299 297 297 294 290 290 288 286 284 285 284 287 288 291 293 295 296 296 297 301 305 308 308 309 308 308 311 313 313 314 315
300 301 304 302 301 301 302 307 312 310 305 300 298 294 297 296 295 297 297 297 301 300 301 299 293 291 289 289 286 284 283 281 284 285 289 295 294 295 295 295 297 298 298 301 304 306 308 311 312 314 314 315 313 316
300 300 301 300 300 301 304 307 308 300 300 297 297 299 298 297 296 297 298 298 302 299 295 294 288 288 293 288 286 286 284 286 289 294 298 300 300 300 299 301 300 299 299 301 303 303 307 313 314 315 315 317 320 324
297 300 300 300 301 303 310 308 303 300 294 299 296 297 299 300 298 298 300 301 300 298 298 295 296 290 287 285 286 291 290 296 299 299 300 301 303 303 303 302 303 302 301 301 303 303 304 306 311 313 313 314 316 319
298 299 300 300 302 301 304 303 305 296 297 299 299 299 300 299 301 301 302 302 302 303 300 298 293 291 292 296 295 297 300 300 299 301 303 305 305 304 304 302 303 303 303 303 303 303 304 305 307 309 310 312 314 315
298 299 300 302 303 304 299 301 306 300 296 298 299 298 298 298 300 301 301 301 300 299 296 294 294 296 296 301 300 300 302 302 302 299 303 303 305 306 305 304 304 304 304 305 305 301 305 305 307 307 307 307 307 308
298 303 303 305 306 306 302 300 299 301 300 297 299 298 297 299 298 297 298 302 298 297 295 297 298 300 303 305 304 304 303 304 302 301 300 300 303 305 305 304 305 305 304 304 304 304 302 304 307 309 308 307 307 309
299 302 301 305 302 302 301 302 300 300 298 298 298 298 298 297 297 297 299 297 296 298 299 299 299 300 301 302 303 306 305 305 304 303 300 300 300 301 303 304 304 303 303 304 304 303 304 305 307 308 308 308 307 309
301 302 301 302 296 295 292 302 297 298 293 294 297 294 295 297 297 300 296 297 298 300 302 301 301 304 302 303 305 304 305 304 302 303 304 304 303 302 303 303 304 302 302 304 304 305 305 299 303 306 308 308 309 308
298 297 295 294 295 290 297 295 299 296 296 293 291 289 291 293 298 295 292 295 299 300 300 300 300 300 301 302 300 301 302 304 303 303 304 303 303 303 303 302 303 305 305 305 305 305 306 306 302 305 305 306 306 306
289 289 292 287 295 292 290 290 291 292 289 291 289 289 293 296 291 290 290 293 296 297 300 299 298 298 299 300 302 301 304 303 303 301 303 303 302 303 303 303 303 304 306 303 303 304 304 305 306 307 306 305 304 304
284 289 288 290 291 290 290 286 288 288 290 288 289 293 296 292 288 286 291 294 296 297 298 298 297 297 298 300 299 300 301 304 303 302 303 303 303 301 300 300 300 302 305 305 304 303 303 304 303 303 303 304 297 305
283 285 292 296 296 295 292 293 294 292 288 287 289 289 289 284 285 290 297 299 297 299 299 299 299 298 298 299 300 301 303 303 303 303 304 304 304 305 303 301 300 302 305 304 305 304 303 302 302 302 302 303 304 306
287 288 285 289 291 294 290 290 289 287 289 292 291 287 286 286 287 295 298 301 300 299 298 298 299 298 298 302 301 300 301 302 303 304 304 305 304 304 304 305 304 291 302 302 303 305 305 304 303 303 303 301 300 301
287 290 289 286 288 291 291 289 289 292 294 292 290 289 290 294 295 296 297 298 298 297 295 295 296 298 298 300 302 302 300 299 297 296 297 295 294 295 301 302 302 303 303 302 286 294 300 299 300 302 300 299 299 298
287 291 288 289 288 287 291 294 293 295 295 294 295 294 295 295 297 299 298 297 296 295 296 296 296 295 295 295 299 300 299 299 298 296 293 294 295 298 299 299 299 300 301 301 301 301 289 297 294 298 294 292 291 288
291 291 288 290 289 291 293 295 296 295 294 294 294 293 291 293 296 298 298 298 297 297 296 295 294 297 298 298 297 296 296 298 298 297 295 296 297 297 297 298 299 299 299 299 298 297 297 293 290 288 288 287 287 287
290 289 288 286 289 294 294 292 292 291 291 291 291 293 292 292 290 294 298 299 297 295 290 294 296 296 297 298 298 297 286 296 294 291 290 291 293 294 295 297 298 298 298 296 295 293 290 288 288 287 286 286 285 285
291 289 290 289 292 289 292 291 289 289 291 292 290 291 291 290 288 294 299 299 297 296 296 296 296 296 295 296 295 294 291 290 286 283 284 283 283 285 293 295 296 296 295 294 292 291 290 289 287 286 285 285 285 285

GFSWCAN_sfc_thetae_003.txt.gz
Theta_e
303 303 303 304 304 304 305 305 305 305 306 307 307 307 308 308 308 304 301 305 298 292 293 296 297 293 292 292 287 291 290 291 292 287 287 288 287 288 286 291 292 293 292 292 291 290 290 309 307 299 302 306 310 310
303 303 303 303 304 304 304 303 304 304 305 306 307 307 307 308 308 308 300 306 307 297 294 300 300 301 299 296 293 292 292 291 295 290 290 291 289 290 288 284 293 291 294 292 294 298 304 308 307 314 312 310 309 312
302 303 303 303 303 303 303 303 303 304 305 306 307 307 308 306 308 307 301 304 303 296 295 297 297 303 305 302 301 291 296 297 296 296 295 293 288 293 286 287 288 293 296 294 295 302 299 306 307 307 311 312 313 314
302 303 303 303 303 303 303 303 303 304 305 306 307 308 308 307 307 307 301 304 302 297 291 293 303 302 306 304 302 301 299 300 298 298 293 291 289 295 289 291 289 293 294 292 294 297 300 303 302 303 313 312 311 313
302 302 302 303 303 303 303 303 304 304 305 306 307 307 307 305 306 306 304 305 307 297 290 291 298 304 305 304 302 302 299 297 294 291 291 288 292 292 293 293 290 294 293 290 291 296 297 297 301 302 309 312 312 312
301 301 302 302 303 303 303 303 304 305 306 307 307 307 307 306 307 302 298 306 307 302 293 288 298 301 302 303 302 300 298 298 295 291 291 292 296 292 288 286 295 298 299 300 296 300 300 301 303 304 304 311 312 312
301 301 302 302 303 303 303 304 304 305 306 306 306 307 307 307 303 299 297 302 304 302 295 289 290 298 302 300 299 298 300 297 295 292 290 291 292 294 289 286 294 296 298 300 301 299 298 301 299 303 304 312 313 313
301 301 301 302 302 303 303 304 305 305 306 306 306 306 308 306 304 301 306 307 305 299 298 288 289 294 301 294 292 298 295 295 294 292 292 290 292 290 285 291 294 296 297 299 299 301 302 302 302 302 305 306 309 309
300 301 301 302 302 302 303 304 305 305 305 305 306 307 306 302 301 302 308 307 304 299 291 291 288 286 299 296 295 296 297 289 294 289 290 291 288 285 290 291 294 295 295 297 298 299 300 300 300 302 303 303 307 308
300 301 301 302 302 302 303 304 305 305 305 306 306 303 300 302 309 308 303 299 297 298 297 290 296 290 296 294 291 292 294 289 286 289 294 289 288 293 295 296 296 297 297 297 295 296 297 299 300 302 302 306 306 307
300 300 301 301 302 302 303 304 305 305 307 305 300 299 304 310 305 301 294 292 294 290 296 295 296 293 299 291 290 291 287 289 284 289 290 288 287 293 297 299 301 301 300 299 298 300 299 301 300 302 302 307 308 308
300 300 300 301 302 303 304 304 304 303 303 302 300 303 305 303 298 293 290 293 292 289 295 294 295 297 297 296 289 289 285 287 282 291 289 286 290 293 295 296 298 301 303 299 300 300 301 302 304 304 305 306 307 308
300 300 300 301 302 303 304 303 303 304 305 307 301 300 295 294 287 285 284 288 289 294 296 295 294 295 297 292 288 286 283 283 290 286 285 287 292 292 291 296 299 302 303 304 302 301 302 303 305 305 305 308 308 307
299 300 300 301 302 304 302 302 303 304 303 301 296 286 290 287 290 290 291 292 296 296 296 297 295 293 296 290 289 285 289 287 284 282 283 288 290 292 293 296 296 297 299 300 304 306 307 303 305 306 307 306 307 307
299 300 300 302 302 301 301 302 303 309 305 297 296 286 290 296 297 297 297 296 297 298 297 296 295 295 291 288 289 287 284 282 284 283 286 290 293 294 294 295 296 297 298 298 301 304 305 307 307 307 307 305 306 308
299 300 302 301 301 300 301 303 309 311 306 300 298 294 296 294 294 295 295 295 299 298 299 297 291 289 288 288 285 283 283 282 284 285 289 294 296 296 298 298 299 299 299 300 302 303 304 305 306 307 309 310 311 310
298 297 301 300 300 300 302 303 309 302 300 297 296 300 297 296 295 296 297 296 300 297 293 293 286 285 291 285 285 285 285 286 290 294 297 298 299 300 300 300 301 301 300 300 301 300 302 307 310 309 307 309 312 318
294 296 299 299 299 300 306 308 304 300 294 297 295 296 298 298 297 297 298 300 298 296 296 293 295 287 285 283 284 289 290 294 296 297 299 301 301 302 303 301 302 302 302 302 301 303 304 304 304 305 308 311 313 314
296 297 298 299 299 297 299 304 305 295 296 299 298 298 299 299 301 300 301 301 301 302 299 296 291 289 290 294 293 294 297 297 297 299 300 302 303 303 304 304 303 303 303 302 302 302 304 305 305 307 308 309 308 310
298 299 299 301 301 300 299 300 307 299 295 298 299 296 297 298 299 300 299 299 299 296 293 292 293 294 295 298 299 298 298 302 299 296 297 301 302 302 302 302 302 303 303 304 304 299 304 304 306 306 306 306 307 307
297 300 301 302 301 301 301 299 298 300 299 297 298 297 296 299 298 297 298 299 296 294 292 296 296 299 301 301 302 302 301 300 299 299 297 297 301 300 301 302 303 302 302 302 302 301 301 303 305 306 307 306 308 308
296 300 301 304 299 302 300 303 298 299 297 296 296 297 295 294 295 296 299 296 295 296 298 297 298 299 300 300 302 303 302 302 301 301 300 300 299 297 298 300 300 301 301 302 302 302 302 304 305 307 307 307 307 307
298 301 299 300 295 293 291 302 296 296 292 294 296 293 294 294 296 298 295 295 297 300 300 300 300 302 300 302 302 302 302 301 300 301 300 301 301 301 299 300 301 300 298 300 303 303 303 298 302 304 306 305 306 305
299 295 292 292 294 288 297 292 298 295 294 291 291 288 291 292 295 291 290 293 297 300 299 299 299 298 300 301 299 299 300 302 301 300 301 301 299 300 301 300 300 301 301 302 302 302 303 304 300 304 304 303 303 304
285 286 289 286 292 291 289 289 290 291 288 289 287 288 291 294 290 289 288 292 296 297 298 299 298 297 296 298 300 301 303 302 301 299 301 302 301 300 301 300 301 301 302 301 300 301 301 302 302 304 304 302 301 302
280 285 286 287 289 289 290 286 287 287 289 287 288 293 293 289 286 286 290 293 295 297 297 298 296 295 295 298 298 298 299 301 302 298 299 301 300 298 298 297 297 298 301 301 302 301 301 301 301 301 301 301 296 303
281 283 288 293 293 292 290 292 292 290 287 286 289 289 288 283 284 289 295 298 297 297 298 297 296 295 295 296 298 299 300 301 301 301 302 302 301 300 301 297 296 298 300 300 303 303 302 301 301 300 298 299 298 298
285 287 283 286 288 289 285 286 287 287 289 292 291 286 285 285 286 294 297 300 300 298 297 296 296 295 295 297 298 298 298 299 301 302 303 303 302 300 299 301 302 293 299 296 301 301 301 301 300 300 297 295 294 295
285 289 288 284 285 286 286 285 285 290 294 291 288 287 289 293 296 296 296 297 299 296 294 293 295 296 296 296 300 300 299 298 295 294 294 293 294 296 298 298 299 300 301 298 286 292 295 294 296 296 294 294 293 293
285 289 286 286 284 283 286 291 291 294 295 295 294 293 293 295 297 299 297 295 294 293 294 295 295 294 294 296 297 297 299 298 296 293 291 291 293 296 296 296 297 297 298 298 298 295 289 292 291 292 291 289 288 286
289 289 286 286 285 289 292 295 296 296 295 294 294 291 292 294 295 297 297 296 295 296 295 295 295 297 297 296 296 294 293 297 295 290 290 292 294 294 294 295 296 297 297 294 292 292 290 288 287 287 286 285 285 284
289 287 286 284 286 292 294 293 292 291 291 290 290 292 291 292 290 294 297 297 296 294 291 294 295 294 296 297 296 294 289 288 287 287 287 287 288 290 293 295 297 297 294 291 290 289 287 286 285 284 284 284 284 283
289 290 290 289 288 288 291 290 289 288 289 288 289 290 291 289 287 292 297 296 295 295 294 294 294 294 294 294 292 289 287 286 284 283 283 283 283 284 289 292 294 293 292 290 289 288 287 286 284 283 283 283 282 282

GFSWCAN_sfc_thetae_006.txt.gz
Theta_e
303 303 304 304 304 304 304 304 304 303 304 304 306 307 307 308 308 303 297 299 297 293 293 295 297 291 292 288 284 286 287 289 289 282 285 287 286 287 286 287 287 288 287 288 289 286 288 302 304 298 300 307 307 305
302 303 303 303 303 303 304 304 304 304 305 304 305 306 307 307 308 306 295 299 302 297 294 298 299 299 298 296 290 290 292 291 291 288 289 290 288 289 288 284 291 287 291 288 291 293 296 302 300 300 300 301 309 307
301 303 302 302 303 303 303 304 304 305 305 305 306 307 308 308 307 305 300 296 299 295 291 290 293 300 302 300 298 289 293 296 294 296 292 291 286 290 285 286 287 291 295 291 290 299 295 298 300 301 301 300 306 310
302 302 302 302 302 303 303 303 304 305 305 305 306 307 308 307 307 305 300 296 299 296 288 288 298 297 303 301 298 298 295 295 295 293 292 291 287 293 288 288 288 291 293 291 292 295 295 299 299 300 301 302 302 309
301 301 302 302 302 303 303 303 304 304 305 306 307 307 307 307 305 302 298 298 299 292 284 287 294 297 301 300 299 299 295 292 291 289 288 287 291 292 291 292 290 295 291 289 288 295 295 295 299 302 300 300 302 303
300 301 301 302 302 302 303 303 304 305 306 307 306 306 306 307 306 296 291 299 301 298 288 282 292 293 297 298 297 296 296 295 293 290 289 290 292 290 286 285 292 297 298 298 295 300 297 298 300 302 300 301 303 303
300 301 301 302 302 302 302 303 304 305 306 306 306 307 306 307 297 293 292 297 301 296 291 288 285 295 299 297 295 293 294 292 291 288 287 289 290 291 288 285 292 295 297 300 301 300 296 298 297 301 303 303 303 304
300 300 301 301 301 302 302 303 304 305 305 306 306 306 306 306 302 295 298 303 300 293 296 287 284 290 298 292 291 295 290 290 289 288 289 287 289 289 284 290 293 295 297 297 300 300 299 301 300 301 303 303 302 304
300 300 301 301 301 302 302 303 304 305 305 305 307 306 301 296 293 297 309 305 298 294 285 287 284 284 298 293 293 291 293 284 289 285 287 288 286 284 289 292 295 297 297 295 297 299 299 298 299 300 300 303 303 303
300 300 301 301 301 302 302 303 304 305 305 307 302 298 290 297 308 306 298 293 292 292 292 287 292 287 295 294 291 290 292 289 282 286 291 285 284 291 294 294 295 296 298 299 295 294 296 297 298 299 301 303 305 306
300 300 300 301 301 302 302 303 304 303 304 297 293 292 297 305 298 292 287 287 289 289 294 293 294 291 297 290 289 290 286 287 282 285 287 285 285 291 294 293 294 297 300 301 301 301 299 298 298 299 301 304 305 307
300 300 300 300 301 301 303 304 303 297 295 296 298 300 297 295 290 287 281 287 286 286 293 291 294 295 295 295 288 288 284 285 281 290 286 285 290 294 294 294 295 296 297 298 300 302 300 300 300 300 302 306 307 306
300 300 300 300 301 302 303 302 302 303 302 301 297 294 288 286 282 284 283 283 284 291 293 292 289 292 293 292 288 286 282 279 289 285 284 287 292 293 294 295 297 297 298 298 299 302 306 304 302 301 300 303 306 305
299 300 300 300 300 302 301 301 302 301 298 293 288 280 282 280 283 287 286 286 291 293 292 291 289 287 294 288 288 283 285 287 280 277 282 288 292 294 296 297 297 297 298 298 299 300 302 304 307 307 302 304 305 304
299 300 300 300 302 300 300 301 301 300 297 292 287 279 281 289 290 292 293 290 291 292 290 288 288 289 283 285 287 281 279 279 283 282 286 292 294 295 297 297 298 297 299 298 300 300 301 302 304 305 306 307 305 305
299 299 299 302 299 299 300 299 301 303 297 294 289 286 290 288 289 290 290 289 292 291 292 290 284 283 280 284 284 282 281 279 282 286 290 294 295 297 299 300 300 300 300 300 300 301 302 301 301 304 306 307 308 310
298 292 299 299 298 299 300 297 302 300 293 290 287 292 290 289 289 289 290 291 293 290 285 288 282 281 285 277 281 286 284 286 288 290 293 295 296 298 300 301 301 301 301 301 301 301 302 303 303 304 304 306 307 306
292 293 297 298 298 297 299 302 298 294 290 290 287 290 291 291 289 290 291 292 293 290 290 287 289 282 281 274 274 284 288 291 291 293 294 296 297 299 301 300 302 302 302 302 303 303 304 304 303 303 304 306 307 308
294 296 298 299 298 293 293 299 296 289 291 293 293 292 291 291 293 293 293 294 294 294 292 290 286 282 283 288 288 291 294 296 295 294 295 297 299 298 300 301 301 301 301 302 302 302 303 305 305 306 306 308 308 309
298 299 298 298 299 294 295 294 299 290 286 291 293 291 290 290 292 293 292 292 293 290 289 285 287 289 290 293 295 295 296 299 297 293 295 297 298 298 297 298 298 301 301 302 303 298 303 304 306 306 306 306 308 308
295 297 298 297 296 295 296 295 293 290 292 292 294 292 290 291 291 290 291 293 290 285 283 290 291 294 295 296 297 298 299 298 297 298 297 295 296 296 297 298 298 299 298 301 301 301 300 302 304 306 307 306 306 307
293 298 293 297 293 294 293 298 293 293 290 291 290 291 286 282 285 290 292 289 290 291 291 291 293 295 295 297 297 298 298 298 297 299 296 296 297 294 293 295 297 296 296 299 301 301 302 303 302 305 305 306 304 303
296 295 292 294 291 289 288 295 290 290 287 288 287 286 285 284 289 292 286 289 291 294 294 294 296 296 295 297 297 297 297 296 295 295 297 298 297 296 296 295 296 296 296 297 299 300 302 297 302 303 305 304 303 303
298 292 289 286 287 283 289 286 285 285 284 282 282 284 285 287 289 284 283 286 290 294 293 295 296 294 296 297 294 294 295 297 298 297 296 295 294 295 298 296 295 296 296 297 298 299 301 303 300 303 302 302 301 302
285 281 281 278 284 287 284 284 284 282 284 284 284 283 283 286 280 282 285 287 289 292 293 293 292 291 292 293 294 294 296 296 296 296 296 296 296 297 295 295 296 295 296 296 298 298 298 300 301 302 300 299 300 298
279 280 281 282 281 283 283 282 283 284 284 283 284 286 285 282 282 282 288 288 289 292 293 293 292 291 291 294 293 292 293 294 297 294 295 295 294 294 293 292 292 293 296 297 298 298 298 298 297 297 297 297 292 297
277 276 281 289 283 287 283 286 285 283 284 283 282 283 281 281 282 287 290 292 292 294 295 293 292 291 291 290 293 293 293 294 295 296 297 297 297 295 294 292 292 294 296 298 299 299 298 297 295 294 293 294 294 294
281 281 279 278 283 282 282 280 283 284 287 289 288 284 283 284 285 289 292 295 295 296 294 293 292 290 288 290 292 293 293 293 297 297 296 296 296 295 295 296 296 290 294 293 296 296 296 295 294 293 292 291 291 292
282 282 284 280 281 280 281 283 283 287 292 291 285 284 287 291 292 292 293 293 293 291 289 288 288 292 297 296 295 293 293 292 292 291 290 287 288 294 296 295 297 297 294 291 285 288 290 291 291 291 291 290 290 290
280 286 281 282 281 280 284 287 286 289 290 290 292 292 291 293 293 296 294 294 293 291 289 289 290 292 293 292 291 291 292 290 289 289 287 287 289 290 290 293 294 295 294 293 291 289 286 289 289 290 288 287 286 285
285 285 282 282 283 286 288 290 290 290 289 291 293 291 290 292 293 294 294 293 293 293 293 293 293 292 292 291 290 289 286 286 286 286 287 289 289 290 291 292 293 291 291 290 289 288 287 287 286 285 284 283 283 283
286 284 283 281 282 288 289 287 286 288 288 287 286 288 287 287 286 289 292 293 291 292 288 291 290 289 291 288 286 285 283 283 283 284 285 285 286 287 289 292 292 291 289 288 287 285 285 284 284 283 283 282 282 282
284 286 286 284 280 281 286 286 283 283 284 280 285 287 286 286 284 290 292 294 293 291 291 291 292 292 290 288 285 284 283 283 282 281 281 280 280 282 287 290 290 289 288 286 285 283 283 283 283 282 282 281 280 280

GFSWCAN_sfc_thetae_009.txt.gz
Theta_e
302 302 302 303 303 303 304 304 304 304 305 305 306 306 307 307 308 303 298 297 298 292 293 294 295 291 292 291 286 285 286 287 286 281 283 286 285 287 285 287 286 285 286 288 287 284 285 297 297 291 293 297 298 299
302 302 302 302 303 303 303 303 304 304 305 305 306 306 307 308 308 306 297 297 301 295 293 297 297 298 297 295 292 290 290 291 288 287 288 289 287 288 287 283 289 285 287 287 290 291 297 297 295 298 298 297 298 298
301 302 302 302 302 303 303 303 304 304 305 305 306 307 308 308 308 306 299 299 298 295 292 288 290 296 300 299 299 287 289 294 290 295 289 290 285 288 282 285 286 289 293 290 290 296 296 297 297 298 300 298 300 301
301 302 301 302 302 302 303 303 303 304 305 305 306 306 307 307 307 305 299 298 298 295 288 287 296 294 301 299 298 297 293 293 294 292 292 291 286 292 287 289 287 291 292 289 290 295 296 298 296 298 299 300 301 302
301 301 301 301 302 302 302 303 303 304 305 306 306 307 306 305 307 301 297 297 297 292 284 286 293 297 297 297 297 297 293 291 292 291 287 286 290 292 292 292 288 293 289 287 287 294 294 295 298 299 299 299 301 301
301 301 301 301 302 302 302 303 303 304 305 306 307 307 307 306 305 295 289 296 297 297 291 282 291 294 297 299 298 297 294 295 294 291 290 289 291 291 286 284 293 295 297 297 294 298 297 299 301 302 299 300 302 302
301 301 301 301 302 302 302 303 304 304 305 305 306 306 307 306 295 292 291 295 299 297 289 287 285 294 297 299 298 296 296 291 290 290 287 287 289 290 288 284 292 296 298 298 300 299 296 299 298 301 301 302 304 303
300 300 301 301 301 301 302 302 304 304 304 305 305 307 307 306 301 295 298 302 300 293 293 286 285 289 297 293 293 293 290 288 288 288 288 286 288 287 283 291 293 295 296 298 298 300 299 300 300 301 301 302 303 302
300 300 301 301 301 301 301 302 303 304 304 304 307 306 300 295 292 295 307 302 296 293 284 286 286 284 296 295 294 293 291 286 288 285 288 288 283 283 290 291 292 292 293 296 298 301 298 297 298 299 300 300 302 303
300 300 301 301 301 301 301 302 304 304 303 305 299 295 289 296 307 304 296 292 291 292 291 288 292 286 292 293 292 290 290 287 284 285 290 286 287 293 295 294 294 294 295 297 296 297 299 299 298 298 299 300 302 305
300 300 300 301 301 301 301 302 304 303 301 294 291 290 296 302 296 289 285 284 286 285 292 292 292 290 297 290 288 290 285 286 279 285 287 286 286 292 296 295 296 296 295 296 298 298 300 302 300 298 298 300 301 306
299 300 300 300 301 301 301 302 302 295 292 294 297 300 298 292 287 285 280 285 284 282 290 289 290 290 294 294 287 287 283 283 279 290 285 284 290 295 295 297 298 298 298 297 298 298 299 302 303 298 298 299 301 305
298 299 300 300 300 300 301 302 300 301 300 302 298 293 286 285 279 281 280 281 283 288 290 289 287 289 290 290 288 286 277 279 288 283 284 287 292 295 297 297 298 299 299 299 299 300 300 301 302 305 301 300 302 302
298 298 300 300 300 301 302 299 300 299 297 291 287 279 280 280 280 286 284 285 289 289 290 288 287 284 287 284 288 283 282 284 274 274 282 289 292 295 297 298 299 299 300 299 299 300 300 300 301 304 305 305 302 301
298 299 299 299 301 300 299 300 300 297 295 292 286 279 281 287 288 289 290 289 290 290 288 286 287 287 281 282 287 280 280 273 276 281 287 292 294 294 295 297 299 299 300 300 301 300 300 300 301 302 303 304 306 306
298 298 296 300 300 298 299 298 297 300 296 294 288 285 288 287 287 287 288 288 290 289 289 288 282 282 280 284 280 281 280 274 281 285 291 293 292 293 295 298 300 300 301 301 302 302 302 302 301 301 302 303 306 306
297 291 297 298 298 299 299 294 297 298 295 290 287 291 289 287 287 289 288 289 290 288 283 285 281 281 283 277 277 284 283 283 289 291 293 293 292 293 296 298 299 300 301 301 302 302 302 304 304 302 300 302 305 307
292 293 297 297 298 296 295 297 295 292 289 289 286 289 290 292 290 288 289 290 290 289 288 285 287 280 278 275 278 285 287 291 292 293 293 293 294 297 297 297 299 299 300 301 301 302 302 303 304 303 303 303 304 305
295 295 297 299 297 292 290 294 295 288 289 290 290 291 291 291 291 291 291 291 292 292 291 288 284 281 281 286 286 289 292 291 291 294 294 294 296 300 297 297 298 298 299 300 301 301 302 303 303 305 306 307 305 306
297 298 298 299 298 292 291 291 297 288 285 290 290 289 290 290 291 291 291 291 290 289 287 284 285 287 287 290 292 293 292 293 293 293 294 294 295 296 296 295 296 296 297 299 301 298 302 302 304 305 305 304 306 305
296 296 297 296 295 294 292 291 291 288 289 290 292 291 291 290 289 289 289 292 288 284 282 288 289 291 293 294 294 293 293 294 293 295 294 292 294 292 293 294 294 295 294 296 298 300 300 301 302 305 304 304 304 303
294 297 293 295 291 292 289 291 290 291 288 289 288 289 285 283 283 288 290 289 288 289 289 289 291 293 293 294 295 296 295 296 294 295 295 294 295 293 292 293 293 293 294 295 296 298 301 302 301 304 303 303 303 303
294 294 291 291 290 289 288 293 290 289 285 285 284 283 282 281 288 290 285 290 291 291 292 292 294 294 295 296 296 296 295 295 295 294 295 295 295 294 294 293 293 292 293 295 296 297 300 297 301 301 302 302 302 302
296 290 287 286 286 283 288 285 281 282 281 280 279 282 283 284 287 284 284 286 288 290 292 294 294 293 294 294 294 294 294 295 294 294 295 293 294 293 294 293 293 293 293 295 296 297 299 300 297 301 300 300 298 298
286 282 281 278 283 285 283 284 283 280 284 282 281 282 281 283 279 281 284 287 287 290 291 292 292 291 292 292 292 293 294 295 294 292 293 294 294 295 294 293 293 293 294 296 296 296 296 296 297 298 297 296 296 295
278 279 278 281 280 282 283 283 283 283 282 282 282 283 279 280 281 281 285 287 287 288 291 292 292 290 290 292 292 293 294 293 295 293 292 292 292 292 291 290 290 291 294 295 296 296 295 294 294 294 293 293 290 294
278 278 281 287 281 285 283 285 283 280 282 282 280 280 281 281 281 285 288 289 290 292 293 293 292 292 291 290 292 292 292 293 294 294 295 294 294 294 293 291 291 292 295 296 296 296 294 292 292 292 292 292 291 292
281 281 279 278 282 282 283 281 281 280 283 285 285 283 283 282 283 289 289 292 290 291 291 290 292 289 289 290 291 292 293 296 298 296 293 293 293 293 293 294 292 287 290 291 293 293 292 292 291 291 290 290 289 290
283 281 283 279 281 279 281 281 281 285 289 288 284 282 287 291 292 292 293 291 294 292 289 287 290 293 293 293 292 291 292 291 290 287 286 285 286 288 290 293 294 294 292 289 284 287 289 290 291 290 289 289 288 288
282 283 280 280 280 280 282 285 286 288 288 289 289 290 289 290 294 295 293 291 290 290 290 288 288 290 290 290 287 287 286 286 288 288 286 286 287 288 289 290 292 291 291 290 289 288 284 288 287 288 287 286 284 283
283 283 281 279 281 284 287 289 287 287 287 287 289 287 287 291 293 294 291 291 290 291 293 292 292 293 291 289 286 284 282 283 284 285 285 286 286 287 288 290 291 291 290 289 288 286 285 284 284 283 283 282 282 281
281 281 281 279 279 285 287 284 283 284 285 285 285 287 288 289 288 289 291 291 291 290 287 290 289 287 286 285 283 283 281 282 282 283 284 284 284 286 288 289 289 289 287 286 285 283 282 281 282 282 281 281 281 279
280 284 284 283 279 281 285 283 281 281 280 278 284 286 286 285 284 288 290 290 290 289 290 290 291 289 288 286 284 284 283 283 280 280 280 280 280 283 287 288 288 287 285 283 282 281 281 282 282 281 281 280 279 278

GFSWCAN_sfc_thetae_015.txt.gz
Theta_e
301 302 302 302 303 303 303 303 303 304 304 305 305 306 307 308 308 306 302 302 298 292 293 295 294 292 292 291 287 291 291 292 290 285 285 286 285 287 287 289 288 287 285 286 286 286 286 299 297 293 296 300 300 301
301 301 301 302 302 303 302 303 303 303 304 305 305 306 307 308 308 307 300 301 301 294 293 299 298 299 297 296 292 292 292 291 292 287 288 288 286 288 286 283 290 286 289 288 288 289 297 300 298 301 301 300 301 302
302 301 301 301 302 302 302 302 303 303 304 305 305 305 306 307 307 306 302 301 299 293 294 294 294 298 301 300 301 290 295 295 295 297 291 287 286 288 285 285 287 291 293 290 291 293 295 297 299 301 302 301 303 303
302 302 302 301 301 302 302 302 302 303 304 304 305 306 305 306 307 305 301 303 299 294 289 292 299 298 302 302 300 298 296 297 295 295 291 291 286 293 289 289 289 292 294 290 291 293 295 297 298 299 301 302 302 304
303 303 302 302 302 302 302 302 302 303 303 305 305 305 305 305 306 305 304 304 303 296 290 292 298 300 302 302 299 299 297 295 294 291 291 290 293 293 295 293 290 294 292 290 289 293 292 294 298 300 301 301 302 302
303 303 303 303 302 302 302 302 302 303 303 304 304 305 305 306 305 301 296 300 301 299 293 288 297 296 299 301 299 299 299 296 295 293 291 296 296 294 289 289 293 295 298 299 295 298 298 299 300 302 301 303 302 303
303 303 303 303 302 302 302 302 303 303 303 304 304 304 306 307 303 297 297 300 301 302 293 289 290 297 299 300 300 299 298 295 297 294 293 292 293 294 292 288 293 295 297 298 299 301 298 298 298 302 302 303 304 305
303 303 303 303 303 302 302 302 302 303 303 303 303 305 306 305 304 301 304 303 303 298 296 288 290 293 299 295 294 298 295 295 295 293 294 293 294 294 289 293 295 295 296 297 298 299 299 301 302 302 303 304 304 304
303 303 303 304 303 303 302 302 302 303 303 303 303 305 303 300 298 301 305 305 302 297 292 291 287 287 298 295 296 296 295 291 295 290 291 292 289 287 290 291 293 294 295 295 297 299 299 300 300 301 302 303 303 305
303 304 304 303 303 303 302 302 302 303 303 301 302 299 296 298 304 306 300 297 296 297 296 290 295 290 295 294 292 292 292 288 286 290 293 287 288 291 293 295 296 298 299 299 295 296 298 298 299 300 301 303 303 305
303 303 303 303 302 303 302 301 302 302 298 295 292 294 298 303 300 295 293 291 292 291 295 295 295 293 297 291 289 291 287 288 284 288 288 288 287 293 297 297 299 300 300 300 300 301 302 301 300 300 301 302 304 304
303 303 303 303 303 302 302 302 302 297 295 294 295 297 297 296 292 289 288 289 290 289 294 294 294 296 295 297 291 291 286 288 283 291 288 286 292 297 297 297 298 301 301 301 302 302 303 303 303 302 303 303 304 304
302 303 303 302 302 302 302 301 301 300 300 300 295 293 292 291 286 285 284 287 288 293 295 295 293 296 293 294 290 290 284 284 290 288 286 289 295 298 298 299 299 301 302 303 302 303 303 304 305 305 304 305 305 305
302 302 302 302 302 302 300 300 301 299 295 292 290 286 287 286 288 290 291 292 295 294 294 294 293 294 294 290 289 286 287 287 283 283 285 294 297 298 299 300 300 301 301 301 301 302 301 302 303 304 305 307 306 304
302 302 302 301 301 300 300 301 300 298 293 291 291 286 288 292 292 293 294 294 295 296 294 292 292 292 290 288 289 286 283 281 284 286 293 298 298 299 299 299 300 301 301 302 302 301 301 302 302 302 305 306 308 306
302 301 298 299 299 300 300 299 297 297 295 293 292 290 292 291 291 292 293 294 297 294 294 293 290 288 286 287 283 282 283 282 289 290 298 299 299 300 300 300 301 302 302 303 303 303 304 303 302 302 304 303 307 308
301 297 298 299 300 300 299 296 296 295 294 294 293 295 293 293 293 293 295 296 296 295 293 291 288 287 288 285 283 286 284 292 295 297 300 299 299 300 300 300 302 302 302 303 303 303 302 303 304 303 301 302 303 306
297 299 300 299 299 298 295 296 294 295 291 296 293 294 293 296 295 295 296 296 296 295 293 292 293 289 287 285 287 290 291 296 297 298 299 301 301 301 300 302 301 301 302 303 303 303 303 303 302 301 302 302 303 303
298 300 300 300 299 294 290 292 295 289 293 296 294 294 294 295 297 298 298 297 297 298 296 293 291 290 291 293 294 296 297 297 298 300 300 301 301 300 300 300 301 301 302 303 303 303 304 304 304 304 304 302 300 300
300 300 300 299 297 291 289 291 297 293 290 294 295 294 294 295 296 296 296 296 295 294 292 291 292 295 296 298 299 300 300 300 299 298 300 301 301 301 300 300 301 301 302 303 304 297 303 301 303 303 303 301 299 297
296 297 297 297 294 292 291 290 290 292 293 292 295 295 295 294 294 293 293 295 293 293 292 294 296 298 300 300 301 301 301 300 300 301 301 300 303 302 301 301 301 302 302 302 302 302 301 299 300 302 302 300 301 300
295 296 294 295 290 291 289 292 289 291 290 293 293 294 292 292 292 293 294 292 293 294 295 296 297 299 299 297 299 300 302 301 301 301 295 297 300 301 301 300 300 300 301 301 302 301 301 299 300 301 300 301 299 301
295 293 291 291 287 287 288 294 289 291 286 288 290 289 289 289 291 293 291 293 294 297 298 297 299 299 298 300 300 300 301 301 301 301 302 302 302 302 301 301 301 301 301 301 302 301 300 294 297 299 298 299 298 298
295 290 287 286 285 284 289 287 290 289 289 288 288 286 288 290 291 289 288 292 295 296 296 297 298 297 299 298 299 300 301 302 302 301 302 301 301 302 302 303 302 302 302 303 302 301 300 299 295 297 295 295 295 294
285 284 285 283 286 285 284 285 286 285 286 288 286 287 289 289 287 286 287 291 293 293 294 295 295 296 295 297 299 301 300 301 301 300 301 301 302 302 302 301 301 301 303 303 300 299 297 297 297 294 293 292 292 292
280 283 282 283 284 283 285 284 285 286 286 286 286 289 288 287 284 285 288 290 291 292 293 293 294 295 295 297 298 299 300 302 301 300 300 300 301 301 299 298 298 298 302 302 300 297 295 294 294 293 291 290 288 291
279 279 284 287 286 286 285 286 286 285 285 284 287 285 286 282 283 288 292 294 294 295 295 294 295 296 297 299 300 300 301 302 301 302 302 301 300 300 300 298 297 298 300 298 297 296 295 293 292 291 290 290 289 289
283 283 280 283 283 286 284 284 283 283 286 289 288 284 284 284 286 292 294 296 296 297 297 296 296 296 298 300 300 299 299 299 298 297 297 298 299 299 299 298 298 288 296 295 295 295 294 293 291 290 290 289 288 289
282 284 284 280 283 283 284 284 285 288 291 290 288 286 288 293 295 296 297 297 298 297 295 296 296 297 296 295 296 299 300 297 296 294 295 294 295 296 298 298 297 297 295 293 285 289 291 292 291 290 288 288 288 287
281 284 281 281 280 281 285 287 287 290 292 293 293 292 291 293 296 299 297 297 295 294 295 296 295 295 295 294 292 292 292 295 296 296 295 294 294 296 298 297 297 296 295 294 293 291 285 290 288 290 288 287 285 284
285 284 282 282 282 285 287 289 290 290 290 289 291 290 290 291 294 294 293 293 294 295 295 295 295 296 293 292 292 291 290 291 292 293 294 295 295 295 295 297 296 295 294 292 291 290 289 288 287 284 283 283 281 281
284 282 281 279 281 286 288 286 287 286 287 287 287 289 289 289 288 289 290 291 293 293 290 293 294 292 291 291 291 290 287 289 290 291 291 292 293 294 295 294 294 293 291 290 289 288 287 286 285 283 281 281 281 280
282 283 283 282 282 282 286 286 285 285 286 286 287 288 289 288 285 286 289 289 289 289 289 290 290 290 290 289 288 287 286 286 284 283 284 284 285 287 291 291 290 290 289 288 287 287 285 284 283 282 281 280 280 279

GFSWCAN_sfc_thetae_021.txt.gz
Theta_e
306 306 306 306 305 305 305 304 304 303 303 304 304 305 306 306 307 307 306 312 302 296 299 300 299 296 296 295 290 296 295 297 295 289 288 287 287 289 287 288 289 288 288 291 293 291 288 303 305 301 304 309 310 310
306 306 306 306 306 305 305 305 305 305 304 303 304 305 305 306 306 307 304 310 309 298 299 305 305 306 304 301 294 293 295 294 294 288 291 290 288 290 289 286 294 288 291 288 291 288 297 302 302 306 308 309 309 310
306 306 305 305 306 306 305 305 305 304 305 304 304 305 305 305 306 306 307 306 303 298 301 303 300 307 307 305 304 290 294 296 297 297 291 289 287 292 287 289 290 293 296 291 293 294 297 300 303 304 307 307 311 311
306 305 305 305 305 306 305 305 305 305 305 305 305 305 305 305 305 305 305 308 303 300 293 299 309 304 309 308 303 300 296 298 298 297 293 293 291 297 293 292 291 293 294 292 291 294 300 301 303 304 306 309 310 312
305 305 305 305 306 306 305 305 305 305 305 305 305 305 306 304 305 305 306 310 309 301 295 298 306 308 307 305 306 301 298 295 295 295 296 296 297 297 297 296 293 296 292 291 290 296 297 300 304 306 306 307 309 310
305 305 305 305 305 305 305 305 305 305 305 306 305 304 304 305 304 305 301 310 310 308 295 293 306 304 305 307 305 305 303 301 299 299 298 301 301 297 294 291 297 298 300 300 296 301 303 305 305 307 306 309 310 310
304 304 304 305 305 305 305 305 305 305 305 305 305 305 304 307 309 306 303 307 309 308 297 295 297 304 306 306 306 306 306 302 301 299 299 299 298 298 296 290 296 298 300 301 303 302 299 302 302 306 308 309 310 311
303 304 304 304 304 305 305 305 305 305 304 305 304 304 306 307 307 306 309 307 309 304 300 293 296 299 307 299 299 303 301 304 304 300 301 298 299 299 292 294 298 298 299 301 301 303 304 306 307 306 308 309 309 309
302 303 304 304 304 304 304 305 305 305 305 304 304 305 308 308 304 305 307 305 309 303 295 296 295 294 303 300 302 301 302 296 305 300 300 298 296 289 292 294 296 299 297 299 303 303 304 305 305 305 305 306 308 308
301 301 302 303 304 304 304 305 305 305 304 304 305 307 302 304 305 306 303 298 299 300 300 297 301 298 302 300 296 298 301 298 294 299 303 298 293 299 299 300 300 303 302 301 299 301 303 303 302 305 305 307 308 308
299 300 300 302 303 304 304 304 304 304 303 307 303 302 304 305 305 302 296 295 297 294 300 301 301 298 306 296 295 298 295 299 292 296 297 294 292 296 301 301 304 305 306 303 302 303 304 305 304 304 305 307 309 309
298 299 301 301 302 303 304 304 303 304 303 300 300 302 303 299 298 294 295 298 297 295 301 298 300 302 303 305 296 297 291 295 289 301 297 289 296 299 300 300 302 303 303 303 305 303 305 306 307 306 306 306 307 309
297 298 300 301 302 303 304 303 301 302 303 303 296 292 294 298 289 290 288 293 295 299 300 301 298 302 303 303 296 294 287 289 300 295 293 296 299 300 302 301 301 303 303 303 303 304 305 304 306 307 304 306 307 308
297 297 298 299 301 302 301 302 302 302 302 298 294 289 293 292 294 296 296 297 301 301 300 301 299 299 301 296 296 288 294 297 288 288 289 297 301 301 302 302 302 303 303 302 303 305 305 307 305 304 304 305 304 305
297 297 298 299 300 300 301 302 302 303 302 297 296 287 293 298 300 301 301 301 303 303 302 300 299 300 298 293 295 291 289 286 291 292 301 304 304 304 303 304 303 302 304 304 305 305 305 305 306 306 306 305 305 305
297 298 300 301 301 301 302 303 304 304 302 298 297 295 300 298 298 299 300 299 302 303 304 301 295 294 292 295 290 288 288 286 291 301 302 305 304 305 306 306 305 305 305 304 305 305 305 305 305 306 306 307 305 305
296 297 299 299 301 301 302 300 303 296 295 294 296 301 300 300 300 301 301 301 304 301 296 296 291 290 300 292 290 295 290 298 301 301 303 305 304 305 308 307 306 306 305 305 305 305 305 306 306 306 304 306 306 304
294 297 298 299 299 299 301 299 298 296 291 297 297 300 303 304 302 302 303 304 301 300 299 295 298 292 291 289 292 299 302 302 303 303 303 306 306 306 307 307 305 305 305 305 305 305 305 304 305 304 306 305 305 306
295 296 296 298 300 296 294 297 299 292 296 299 301 303 303 304 305 305 304 305 305 304 301 298 294 293 294 297 298 298 300 301 301 302 304 306 307 306 306 306 306 306 305 306 305 305 305 306 305 305 306 305 304 304
295 296 297 299 298 293 290 294 301 296 294 299 301 301 302 302 304 304 304 304 303 301 297 295 296 298 298 300 303 303 302 303 302 301 301 304 306 306 306 306 304 306 305 305 304 301 304 305 304 305 304 304 302 302
295 299 299 298 297 295 292 294 294 297 298 297 300 300 300 303 302 302 301 304 299 298 297 299 300 302 304 304 305 304 304 304 302 302 302 301 305 304 304 305 305 304 303 302 302 301 301 305 304 305 304 302 305 302
295 296 295 297 294 292 290 295 295 299 296 296 296 297 296 296 297 299 302 299 298 301 302 301 302 303 303 303 304 305 304 305 305 303 299 301 302 302 304 304 304 301 302 303 302 302 302 304 304 305 304 304 301 302
296 293 292 293 288 288 287 296 290 293 290 292 296 293 295 297 299 303 298 300 301 304 303 303 304 305 304 305 305 305 305 304 302 303 304 304 304 304 304 304 305 302 301 303 306 302 302 296 300 302 304 304 302 301
295 291 288 286 286 284 290 289 293 292 293 291 290 290 293 296 299 296 294 297 301 303 303 303 302 301 302 303 302 302 303 305 303 304 304 305 302 304 304 305 303 303 305 305 305 302 302 303 299 302 301 301 301 298
286 285 286 283 287 284 284 286 288 288 286 289 288 288 291 296 292 291 291 296 298 300 303 302 301 300 300 301 302 303 305 303 301 301 305 306 303 304 304 303 303 305 307 305 303 301 302 303 302 302 300 298 297 298
278 286 283 285 285 285 285 283 285 286 287 287 288 293 296 292 289 288 293 296 298 299 302 302 301 300 299 301 300 301 302 304 303 301 304 305 304 303 301 300 300 302 305 305 304 302 302 302 301 299 299 296 289 295
277 282 288 292 290 289 288 289 290 289 286 286 290 290 290 285 287 293 299 301 299 300 306 305 303 300 300 302 303 304 304 305 304 303 306 306 305 306 303 300 299 303 305 304 304 303 301 301 300 299 299 298 297 295
283 284 281 285 286 288 285 286 285 284 287 292 291 287 286 288 290 298 298 303 303 304 303 301 301 300 302 303 305 305 305 306 308 307 305 304 306 305 304 304 306 291 303 304 304 304 303 301 300 298 297 296 296 296
283 287 286 283 284 285 285 285 286 289 291 289 286 285 288 292 295 297 299 301 302 299 299 298 300 302 302 304 305 305 305 305 302 301 300 300 300 300 304 305 303 303 303 301 283 291 297 298 298 298 296 297 296 295
284 287 284 284 282 282 286 289 288 291 292 291 292 291 292 294 297 301 300 299 297 298 298 298 298 299 299 299 300 303 306 304 302 300 299 298 299 301 303 303 303 303 303 301 300 296 285 293 290 298 297 295 289 290
286 286 284 285 284 287 288 291 292 292 292 291 292 290 291 293 295 290 289 291 298 299 298 297 300 301 300 299 299 298 298 302 302 302 301 304 304 304 302 303 303 303 302 302 301 299 297 297 296 293 291 288 287 287
286 285 284 282 285 289 290 288 289 289 290 289 289 291 291 291 289 286 287 288 288 290 290 294 294 292 297 299 299 298 290 296 297 298 300 302 303 303 303 302 301 300 299 299 298 297 296 294 292 290 288 287 287 287
286 286 286 285 285 285 288 288 287 287 288 288 288 290 291 289 282 286 290 289 287 286 286 290 293 293 294 294 294 293 291 292 287 284 285 285 286 291 296 297 297 296 296 295 294 293 292 290 289 287 287 286 286 285

GFSWCAN_sfc_thetae_027.txt.gz
Theta_e
307 307 306 307 307 307 306 307 306 306 306 306 307 307 308 307 306 303 299 302 299 296 296 299 299 295 295 294 290 293 290 290 289 285 285 284 284 287 286 288 288 285 285 285 287 284 282 296 298 294 300 304 306 308
306 306 307 307 307 307 306 306 305 306 307 306 306 307 307 307 307 305 297 302 308 299 297 303 303 303 301 300 296 294 291 291 293 288 286 286 285 287 286 283 292 286 289 286 288 287 294 297 299 302 304 304 305 308
306 307 306 306 306 306 306 304 304 306 306 305 306 307 307 308 307 305 300 300 300 298 297 297 298 305 306 305 305 292 294 294 295 296 291 289 285 290 284 286 289 292 296 290 292 294 296 298 301 303 303 305 307 308
305 305 305 305 305 305 305 304 305 306 306 305 306 306 307 307 307 305 299 300 301 299 291 294 305 301 307 307 304 301 298 297 297 295 292 290 287 294 291 291 290 293 294 292 291 295 298 299 301 302 302 306 307 307
304 303 303 304 304 304 304 305 305 305 305 306 306 306 306 306 306 304 302 302 303 298 292 294 300 305 306 306 303 302 300 296 293 292 292 291 296 293 295 295 291 295 292 290 287 296 296 297 301 303 302 304 307 306
302 302 303 303 303 303 304 304 305 305 306 305 305 306 306 306 306 301 299 305 305 305 296 289 299 300 306 306 305 302 301 298 295 294 294 296 301 294 289 288 294 296 298 297 296 300 300 302 302 304 302 304 307 307
301 301 301 301 302 303 302 303 305 305 306 306 306 306 306 306 303 299 299 304 307 308 297 291 292 303 305 304 303 303 303 300 299 298 294 294 295 296 290 287 293 297 300 300 302 301 299 301 300 303 305 305 307 308
299 299 300 300 301 301 301 302 303 304 304 305 305 305 305 305 304 301 306 308 307 303 300 290 291 298 306 298 296 303 300 301 299 296 297 294 296 293 288 294 297 299 300 300 301 302 301 304 304 304 306 306 305 305
298 299 299 299 300 301 301 302 303 304 304 305 305 305 304 303 303 304 307 308 306 302 293 294 289 289 304 299 300 298 300 292 300 294 294 295 291 285 292 296 297 298 299 298 301 302 303 302 302 303 304 305 304 305
298 298 298 299 299 299 300 302 303 303 304 305 304 302 299 302 308 307 302 299 299 298 298 292 296 292 299 298 296 295 298 293 289 295 298 291 289 296 298 299 298 298 300 301 298 298 300 301 302 302 302 304 304 305
297 298 298 298 298 299 299 300 302 304 304 303 299 298 301 308 303 301 294 294 294 292 295 295 295 293 303 294 293 296 292 293 288 292 291 289 286 294 299 300 302 300 300 301 301 303 300 303 302 302 301 303 303 304
296 297 297 297 298 299 299 300 302 300 298 297 297 299 301 298 296 292 291 295 294 292 298 297 298 299 300 301 293 294 290 291 287 297 290 287 293 297 299 300 300 300 300 302 303 302 303 303 303 303 302 302 304 304
296 297 297 298 298 300 301 302 302 302 302 302 296 293 292 293 287 288 285 291 293 298 300 300 296 299 299 299 293 291 286 285 295 288 288 293 297 298 299 300 300 301 301 303 302 303 304 303 304 303 302 303 304 303
296 297 297 298 300 302 302 301 301 300 299 296 293 286 288 287 291 292 293 296 300 301 298 298 297 296 298 293 294 286 290 292 285 283 286 294 298 300 300 301 300 301 301 302 302 303 303 302 303 304 301 302 301 301
296 296 297 299 299 299 299 300 299 300 297 293 295 287 290 295 298 300 301 300 302 301 298 297 297 298 294 292 293 290 286 284 285 284 292 297 300 302 301 302 300 300 301 301 303 302 303 303 302 302 303 303 301 301
296 297 297 298 298 298 298 299 300 299 298 295 294 291 296 295 296 299 301 299 303 301 302 299 295 292 291 292 288 286 284 281 286 293 299 300 302 302 302 304 302 303 303 301 302 303 302 302 302 302 302 302 301 300
295 293 299 298 298 298 299 297 298 295 293 293 291 296 296 295 295 297 299 300 305 301 295 296 291 291 295 290 287 290 286 290 296 299 301 303 302 302 303 304 304 305 303 301 301 302 303 302 302 303 301 302 300 301
293 296 298 298 298 296 297 299 295 295 290 292 289 291 294 295 295 296 299 303 303 301 299 295 298 291 288 287 288 294 297 300 301 300 301 302 302 303 304 303 304 305 302 303 302 302 301 300 299 298 299 300 299 299
295 296 297 298 298 292 291 294 296 288 291 294 295 296 296 297 299 300 301 303 305 306 301 298 294 291 291 295 296 298 299 299 299 301 302 303 305 304 304 305 305 303 303 303 303 301 301 301 300 299 298 299 296 297
296 297 297 298 298 292 288 290 298 293 290 293 295 294 295 296 298 299 300 302 302 301 297 295 294 296 297 299 301 299 300 302 300 299 300 301 303 303 304 303 302 302 302 302 302 301 301 300 301 299 299 297 296 295
295 296 297 297 295 294 291 290 290 293 294 292 295 294 294 297 296 297 297 300 299 297 296 299 299 301 303 304 304 304 303 302 300 299 300 300 303 303 303 303 304 302 302 300 301 300 299 299 300 300 300 298 298 297
293 297 294 295 289 290 291 293 290 292 290 290 290 291 289 289 290 292 295 293 293 298 300 301 302 302 302 302 302 305 305 304 304 301 299 300 303 302 301 302 301 302 300 300 301 301 299 298 297 301 299 298 297 296
296 294 292 291 285 286 285 293 287 289 285 288 290 287 288 290 293 298 293 296 296 299 300 302 303 304 304 305 306 305 305 304 303 302 301 302 304 304 303 303 303 302 300 301 302 300 300 296 297 299 299 299 298 296
296 289 286 284 285 282 289 286 291 289 288 286 285 285 287 290 294 291 289 292 296 301 301 302 303 302 302 304 302 302 302 303 302 302 303 302 302 302 303 303 304 303 303 303 301 301 300 299 296 298 297 298 297 295
283 281 283 280 287 284 282 283 284 284 282 284 284 284 286 291 286 286 287 291 295 297 300 301 302 302 300 301 301 301 305 302 300 299 303 304 304 303 303 303 303 304 305 302 300 300 300 300 299 298 296 295 295 294
278 283 281 282 283 282 283 280 282 283 284 284 285 289 290 287 284 284 289 292 294 295 295 299 301 299 299 300 300 301 302 304 303 301 303 305 303 302 301 300 300 301 304 302 301 300 299 299 298 296 293 291 288 294
277 279 284 287 285 285 283 284 285 283 282 282 285 286 286 283 284 287 291 293 292 294 297 300 300 300 298 299 301 303 304 305 304 303 303 306 306 306 304 302 300 301 303 302 302 301 299 299 298 297 296 295 294 293
283 283 279 282 283 284 281 282 281 281 283 287 287 283 282 282 284 291 293 295 295 295 296 299 299 300 300 300 301 303 304 305 305 305 305 305 305 305 305 305 306 294 300 300 300 300 300 299 298 297 296 294 293 293
282 285 284 280 282 282 282 282 282 285 287 287 284 284 286 291 294 294 296 298 300 297 295 296 299 302 302 301 299 300 302 301 300 299 297 298 300 300 300 301 301 298 296 292 286 294 299 298 297 296 296 294 292 291
282 286 282 282 280 280 284 287 286 288 290 290 290 291 291 293 292 292 291 292 293 292 293 296 297 297 296 297 295 295 296 297 297 297 296 294 297 303 303 301 300 299 298 295 293 291 288 294 292 294 291 289 287 286
286 286 283 284 283 286 288 291 291 291 291 289 290 288 288 289 288 289 288 289 289 290 288 289 293 293 294 293 292 293 292 294 295 296 297 297 298 301 302 302 302 301 299 297 295 294 293 293 293 289 288 285 286 285
286 285 284 282 284 289 291 289 288 288 288 288 288 290 290 288 283 286 287 288 286 285 285 286 287 288 292 293 293 291 288 289 288 290 293 296 296 296 297 300 300 300 298 297 296 294 292 289 288 287 286 285 285 284
287 287 287 286 285 285 288 288 287 286 287 287 287 288 286 284 280 284 289 289 286 285 286 287 288 289 291 293 292 291 290 290 287 285 285 285 285 288 295 296 296 295 294 293 292 291 290 289 287 287 286 285 284 283

GFSWCAN_sfc_thetae_030.txt.gz
Theta_e
307 307 307 307 307 307 307 307 307 306 305 305 306 307 307 307 308 304 297 297 294 289 291 295 296 292 292 292 288 293 289 287 287 285 282 282 284 285 286 288 287 285 283 285 287 283 281 292 293 293 296 302 304 305
306 306 306 306 306 306 306 306 306 305 304 305 304 306 307 307 308 307 297 298 298 294 294 299 300 301 300 298 294 294 291 290 292 286 283 287 284 287 286 281 292 285 288 285 287 286 293 293 296 302 302 301 302 304
306 306 306 305 305 305 305 305 305 305 305 305 305 306 306 307 307 307 300 300 296 291 292 293 294 300 302 301 303 293 290 291 293 295 289 289 284 288 284 285 289 291 295 289 290 293 293 298 301 302 303 302 304 307
305 305 304 304 303 304 304 304 304 305 305 305 305 305 306 306 307 306 300 299 295 295 290 290 301 298 303 302 302 301 294 293 292 293 289 289 287 293 288 290 289 291 293 291 290 295 297 299 300 302 303 305 304 306
303 302 302 302 303 303 303 303 303 303 304 305 306 306 306 306 306 305 301 300 299 294 291 291 297 300 301 302 301 301 298 295 293 291 291 289 295 294 294 291 286 291 291 288 288 296 296 297 301 303 303 303 305 305
301 301 301 301 301 301 301 302 302 303 303 303 304 304 305 306 306 300 295 300 300 299 294 288 294 297 300 302 301 298 298 296 295 294 293 294 299 291 288 286 292 293 298 296 293 298 298 300 303 304 304 305 306 306
299 299 299 299 300 300 300 301 301 302 303 303 304 305 305 305 303 295 295 301 305 304 296 290 288 298 301 301 301 297 299 298 297 297 294 291 293 292 290 286 292 297 299 299 301 300 297 300 300 304 306 306 307 306
298 298 299 299 299 299 300 300 300 301 303 303 304 304 305 304 303 298 300 304 305 301 297 288 287 291 302 294 292 298 294 296 297 294 293 291 292 290 287 294 296 297 297 298 299 302 301 303 303 303 305 305 304 304
297 297 298 298 298 298 299 300 300 301 303 304 304 305 301 297 299 303 309 307 306 301 291 291 284 282 303 298 297 296 294 289 295 291 292 295 290 282 289 292 294 296 297 296 300 301 301 301 301 301 301 302 302 303
296 297 297 297 298 298 299 299 300 302 303 305 302 299 297 300 308 307 301 297 297 297 297 292 292 287 294 296 295 290 291 289 285 291 293 283 283 293 295 296 296 297 298 299 295 296 297 299 299 299 299 300 302 302
296 296 297 297 298 298 299 300 301 302 303 296 293 294 297 303 300 297 293 291 292 289 291 291 291 288 297 293 291 291 284 288 282 289 292 282 281 291 298 299 299 299 299 299 299 300 302 298 300 300 299 301 301 301
296 296 296 297 298 299 301 302 302 297 295 295 295 299 298 295 294 291 289 292 291 288 292 291 292 293 295 297 289 289 282 285 283 294 288 281 289 294 299 300 297 297 300 299 299 300 301 302 302 300 301 301 299 301
295 296 296 297 298 301 302 301 300 300 298 299 296 292 290 291 285 286 281 286 290 294 295 296 293 296 294 295 289 286 281 279 288 281 283 288 294 295 297 298 298 299 301 300 299 301 301 302 302 300 298 301 300 299
295 296 297 297 299 299 298 298 299 297 295 293 291 285 286 284 287 287 288 291 297 296 295 294 293 293 293 290 290 283 287 290 281 278 280 291 295 296 298 298 297 300 301 301 301 301 300 300 299 300 299 299 298 298
295 296 296 298 298 298 297 298 299 293 291 289 289 285 285 290 292 293 295 294 298 300 295 292 292 293 288 290 290 286 282 279 277 279 285 294 299 300 298 299 297 299 300 299 301 300 300 300 299 298 299 298 298 298
295 296 296 299 298 298 298 297 295 293 292 291 289 286 288 288 290 291 293 294 299 300 298 293 289 288 287 289 285 283 279 276 280 287 295 297 299 300 300 301 299 300 300 299 300 302 301 300 300 298 300 299 298 298
295 288 296 298 298 298 298 292 293 292 289 288 287 291 289 290 290 292 293 293 299 297 292 295 288 286 290 284 283 286 282 284 289 292 297 298 298 299 301 302 301 301 298 299 299 300 299 300 300 298 296 297 298 297
289 291 296 297 297 295 292 296 292 290 287 289 286 288 287 289 289 290 293 295 294 298 297 293 294 287 284 282 280 288 291 293 295 297 298 301 302 302 303 300 302 301 299 299 299 299 298 298 297 295 295 296 296 296
293 294 297 297 297 293 287 290 292 285 286 288 288 289 290 290 293 295 295 297 297 299 299 296 292 286 287 290 290 293 295 297 297 296 298 301 300 301 303 303 303 301 299 298 298 298 297 297 296 295 295 294 292 293
297 297 297 297 297 290 287 286 291 287 283 287 289 288 287 288 292 291 293 295 294 295 294 294 292 291 291 294 296 296 296 298 297 296 297 299 302 302 301 301 299 299 298 299 299 297 299 298 296 296 295 293 292 291
293 293 295 293 289 289 287 285 285 286 287 286 289 287 286 288 287 289 288 291 289 291 290 295 296 298 297 297 299 299 297 297 297 299 299 297 299 301 303 302 300 297 297 297 297 298 298 298 296 296 295 294 293 292
290 295 290 291 287 287 285 288 285 287 284 284 284 285 282 280 283 285 288 286 287 289 292 294 297 299 300 299 298 298 299 299 300 298 297 298 300 301 301 302 299 298 298 297 299 299 298 296 298 298 296 294 293 293
294 292 289 289 285 282 281 289 284 285 282 284 284 283 283 282 285 289 285 288 289 293 295 296 297 300 299 300 300 300 301 300 300 299 301 301 301 301 300 299 300 299 298 298 299 297 294 294 296 297 296 294 293 292
295 288 285 283 282 276 285 282 284 283 283 280 279 280 282 283 287 283 283 285 291 295 295 295 299 298 298 298 297 297 299 300 299 298 300 299 300 299 301 302 302 301 301 299 299 296 296 298 295 297 296 295 293 291
279 276 281 275 281 280 280 280 281 279 280 281 281 280 280 284 278 280 281 287 289 290 292 295 297 297 296 297 297 299 298 296 295 295 298 302 300 300 300 302 302 303 302 299 298 297 296 296 295 295 295 293 292 291
272 279 274 279 279 279 279 278 279 279 280 280 282 286 284 283 281 281 286 287 289 290 290 293 295 294 297 297 297 297 297 297 297 296 298 302 302 300 299 298 297 298 302 301 299 298 297 296 295 293 292 291 288 291
275 274 279 284 279 280 277 280 281 278 279 280 281 281 282 279 281 285 287 290 290 292 294 296 297 296 296 298 301 301 301 300 299 299 299 301 302 303 302 300 298 299 302 302 301 300 298 296 294 292 292 291 291 291
280 282 278 279 280 280 278 277 278 277 280 284 284 280 279 281 283 288 291 293 295 297 294 296 298 300 296 297 297 297 298 301 301 301 300 300 301 302 303 303 302 294 303 303 302 301 299 297 295 294 293 291 289 290
281 283 283 279 280 280 280 279 279 281 284 282 280 279 284 288 287 287 288 289 293 291 291 293 294 297 298 296 295 294 295 295 295 293 293 293 293 297 301 297 298 296 296 295 290 296 298 297 296 294 292 290 289 288
281 284 281 280 280 279 282 285 282 285 286 286 286 287 289 287 286 287 286 286 287 287 288 291 293 293 291 292 292 292 292 293 295 295 292 293 297 300 300 300 298 295 295 294 292 290 288 291 289 290 289 287 285 283
284 284 283 282 281 284 285 287 287 287 286 285 287 285 286 285 286 285 284 286 287 287 287 286 288 291 290 288 288 288 288 290 290 293 295 296 297 300 300 299 298 298 296 295 294 293 291 290 288 287 285 283 283 283
284 283 283 282 282 284 287 285 283 284 284 284 283 286 287 285 281 284 285 285 285 284 285 287 286 286 291 291 290 289 287 288 287 287 288 292 295 296 297 297 296 295 294 293 292 290 288 286 284 284 283 283 282 282
283 285 286 285 284 282 285 283 282 281 282 282 285 284 282 279 275 281 286 286 285 284 286 288 288 288 289 289 290 290 289 288 286 285 285 285 285 287 294 295 294 293 291 290 289 288 287 286 285 284 283 282 282 281

GFSWCAN_sfc_thetae_033.txt.gz
Theta_e
307 307 307 307 307 307 306 305 305 305 305 305 305 305 305 306 307 305 299 299 296 290 291 291 291 289 292 291 288 290 289 287 286 283 282 280 282 285 285 288 286 284 282 284 284 282 280 292 290 291 296 300 303 302
307 306 306 306 306 305 305 304 304 304 305 304 305 306 306 306 307 307 299 300 301 294 292 295 295 296 297 296 293 294 290 290 287 287 282 287 284 286 285 280 292 284 287 284 285 285 289 290 290 299 303 302 303 302
306 306 305 304 303 303 303 303 303 303 303 303 303 306 306 306 306 306 301 301 297 292 290 289 290 296 298 298 300 292 291 292 288 295 290 288 284 287 283 286 288 291 295 289 289 292 294 296 300 301 303 302 304 305
304 304 303 302 302 302 302 302 301 302 302 302 302 304 305 306 306 306 301 301 297 293 286 288 298 296 301 300 299 300 297 295 294 294 289 288 286 292 288 290 287 290 292 290 290 294 296 298 300 302 302 305 305 307
301 301 300 300 300 300 301 301 301 301 301 302 302 303 304 304 305 304 303 302 301 293 289 289 294 298 299 299 298 300 296 295 293 290 290 288 293 293 294 291 287 290 291 289 287 294 295 296 301 303 303 304 305 306
299 299 299 299 299 299 299 300 300 301 301 302 302 303 303 304 305 301 292 299 301 298 291 287 292 295 298 300 300 298 297 296 295 293 292 295 294 295 288 285 291 295 297 296 295 299 299 301 302 305 304 305 306 306
298 298 298 298 298 298 298 299 299 300 300 301 302 303 303 304 302 296 290 300 302 300 293 289 285 293 299 301 297 298 299 296 297 296 293 289 293 291 287 283 289 295 297 297 300 299 297 300 300 304 305 305 306 306
297 297 297 297 297 298 298 298 299 300 301 302 303 304 305 305 303 298 300 303 304 299 298 286 286 288 300 294 294 298 296 297 298 297 293 290 291 290 283 290 293 296 296 297 299 301 301 303 302 301 303 304 303 302
297 297 297 297 297 297 298 299 300 301 302 303 304 306 301 298 296 301 309 307 304 300 291 290 287 281 297 299 296 296 298 292 297 294 291 291 286 281 287 290 292 294 293 295 299 299 299 299 298 299 300 300 301 301
296 296 296 297 297 297 298 300 302 303 303 303 300 298 297 299 304 304 301 297 297 298 297 291 292 286 291 292 292 289 291 288 289 292 293 282 282 291 293 294 295 295 297 297 295 296 297 297 298 298 299 299 300 301
296 296 296 296 297 298 300 302 302 300 299 291 288 291 297 302 298 297 293 291 291 290 291 290 289 287 293 288 289 290 283 285 282 289 290 282 282 290 295 296 297 298 297 299 301 300 299 298 297 298 298 298 298 299
295 295 296 296 297 299 300 300 300 293 290 290 291 296 297 293 290 290 289 292 289 287 290 288 290 290 292 296 289 287 282 283 282 293 289 281 288 293 295 297 296 297 300 298 300 300 299 300 299 298 298 297 297 297
295 295 295 296 298 299 299 299 299 298 297 295 294 292 290 290 284 286 281 285 290 293 294 294 292 294 293 293 288 285 280 279 286 278 281 285 291 294 296 296 295 299 300 301 298 299 299 299 298 297 296 297 297 297
295 295 296 297 298 298 298 298 298 296 289 290 290 284 285 283 284 285 287 291 296 298 296 293 293 293 292 289 288 283 286 283 276 275 279 288 292 294 296 297 296 297 298 299 299 299 298 298 297 297 296 296 296 295
295 296 296 297 298 298 297 298 299 292 288 286 289 282 284 287 289 292 295 295 297 299 297 293 292 292 286 288 288 285 282 276 278 278 282 290 295 298 297 297 297 298 298 298 299 299 298 297 296 296 296 296 295 295
295 296 294 296 297 297 298 297 292 291 288 288 287 286 287 285 286 289 290 290 295 298 297 295 289 288 287 286 284 282 279 276 279 282 290 294 298 299 299 302 298 299 299 297 298 300 299 298 296 296 297 296 295 295
295 288 295 296 297 298 297 291 290 290 286 285 285 290 288 286 287 288 289 290 292 291 292 294 286 286 289 286 282 282 280 283 286 289 293 296 298 299 298 301 300 301 298 297 298 297 297 298 297 296 294 294 295 295
290 290 296 297 296 294 290 293 291 288 285 286 283 284 285 287 286 287 289 290 290 292 296 292 294 288 285 282 281 286 288 291 292 294 296 297 299 299 300 300 302 301 298 297 298 297 297 295 294 293 294 294 295 294
292 293 296 297 295 291 285 287 290 284 284 285 286 286 287 287 288 291 292 293 293 295 296 294 291 289 288 290 289 290 291 294 294 296 298 300 300 299 302 303 302 299 298 297 297 295 295 296 294 293 292 293 292 291
296 296 296 296 295 288 285 285 289 286 282 285 287 285 285 285 288 288 289 289 292 293 293 290 291 292 292 296 294 294 296 296 295 295 298 297 300 300 300 300 300 301 297 297 297 295 296 294 294 293 293 292 291 289
293 291 294 292 288 288 285 285 284 284 285 284 287 283 282 284 284 283 283 287 286 289 289 293 295 298 299 300 300 297 296 296 296 296 296 295 297 299 299 299 299 297 297 297 297 296 296 295 294 294 293 291 291 291
288 294 290 289 285 286 283 285 284 286 284 284 284 284 282 279 281 284 286 283 284 286 288 291 293 295 296 296 299 298 299 298 297 297 295 296 296 297 298 299 298 297 298 298 298 297 297 297 295 296 293 291 291 290
293 292 290 288 284 281 277 286 282 284 281 283 284 283 282 280 284 288 283 285 288 292 293 294 295 296 297 298 298 298 299 298 297 297 298 299 299 300 299 299 299 298 296 297 299 299 296 294 294 294 293 292 291 289
294 287 283 282 283 275 282 281 284 284 283 281 279 280 281 282 286 283 282 286 289 292 291 292 294 294 295 297 296 296 297 298 298 298 298 299 298 297 299 299 300 300 300 299 298 295 296 297 294 294 293 292 290 288
280 274 280 276 280 280 279 280 281 279 277 278 279 281 282 285 280 281 283 287 289 290 290 291 292 294 293 295 296 296 296 295 296 296 296 298 298 298 299 301 300 300 300 298 295 296 297 296 296 294 293 291 289 288
272 277 276 278 278 277 277 276 276 277 277 278 280 284 283 283 282 282 285 288 288 290 289 289 292 294 295 296 297 297 297 299 295 295 296 300 301 300 299 298 297 298 301 301 298 296 296 296 295 294 292 289 287 289
271 273 279 284 281 281 279 279 278 275 277 278 279 280 281 278 280 285 288 288 289 292 294 294 294 292 292 293 295 296 298 299 298 298 300 300 300 300 300 299 299 300 301 301 300 298 297 295 295 294 292 291 290 289
280 281 278 278 280 281 279 278 278 277 278 282 282 278 279 280 279 283 288 287 289 292 292 293 295 295 295 294 294 294 295 298 299 300 300 299 300 299 298 299 301 293 301 303 302 300 299 297 295 294 292 291 289 288
280 282 282 279 280 280 280 279 280 281 282 281 278 279 283 284 284 284 286 287 289 289 287 288 290 293 293 295 295 293 292 293 294 293 293 293 295 296 298 296 295 295 295 296 289 296 299 297 295 294 292 291 289 287
279 283 281 280 280 279 282 284 282 285 286 286 285 285 285 284 284 285 285 285 285 285 287 288 290 290 288 288 289 291 291 290 291 291 291 292 295 298 296 296 295 293 294 294 294 291 288 291 289 290 289 287 286 284
282 283 282 281 281 282 283 285 286 285 284 284 285 283 283 283 285 285 284 285 286 286 286 286 288 289 288 286 286 285 286 289 288 289 290 294 296 297 296 295 295 294 295 295 294 294 291 292 290 288 286 284 283 283
282 282 283 281 283 284 285 283 281 283 283 282 282 287 286 281 277 281 284 284 284 284 285 285 285 285 288 289 289 288 286 286 286 286 286 288 290 294 295 294 294 293 292 290 289 289 288 287 286 285 285 283 283 282
280 281 284 283 281 283 285 283 281 282 281 279 279 281 281 278 275 281 286 285 283 283 284 285 286 286 287 287 286 286 286 287 286 285 285 284 284 286 291 292 291 291 290 289 288 287 286 285 284 283 283 282 282 281

GFSWCAN_sfc_thetae_036.txt.gz
Theta_e
307 307 307 307 307 306 305 304 303 303 304 304 304 305 305 307 306 304 301 300 295 290 291 293 293 288 287 287 286 290 289 286 284 281 281 278 281 284 284 287 285 284 282 282 283 280 279 290 290 289 294 295 301 302
307 307 306 305 304 303 303 303 302 302 303 303 303 304 304 306 307 306 298 301 301 293 292 297 297 298 296 294 290 292 292 291 285 286 281 282 284 284 284 281 291 283 286 283 284 284 291 290 290 293 295 297 302 303
306 305 304 303 302 302 301 301 301 301 301 302 302 303 303 305 305 305 300 301 297 293 292 288 289 294 295 297 298 288 294 294 292 295 289 287 284 287 282 285 288 289 294 288 288 291 293 294 298 299 302 302 305 305
303 302 301 300 300 300 300 300 300 300 300 300 301 302 303 304 304 304 300 302 298 294 286 287 296 294 299 296 295 296 296 295 295 294 289 287 285 291 287 290 289 290 290 290 289 292 295 296 298 301 302 305 305 309
300 300 299 299 299 299 298 299 299 299 299 301 301 302 302 302 304 303 301 302 301 293 287 289 293 295 297 297 297 296 296 295 293 290 289 288 292 292 294 292 285 291 291 289 288 294 295 296 300 302 301 304 305 305
299 298 298 298 298 298 298 298 298 299 300 301 301 302 302 303 304 299 293 300 302 299 290 285 291 296 295 298 297 296 297 296 295 292 292 293 293 294 288 285 289 293 295 297 294 299 299 301 303 304 302 304 305 304
298 298 298 298 297 298 298 298 299 300 300 301 302 302 303 303 301 296 293 299 302 300 291 288 285 292 296 300 296 296 298 297 296 295 294 292 292 295 290 282 289 293 295 297 300 300 299 299 298 302 303 304 305 305
297 297 297 297 297 298 297 298 300 300 302 303 303 303 304 305 303 298 301 303 303 297 296 288 285 287 299 295 293 298 295 296 297 296 296 293 294 291 284 287 291 294 296 297 299 300 300 301 301 301 302 303 302 302
297 297 296 297 297 297 298 299 302 303 302 301 302 305 300 299 295 299 306 307 303 297 291 288 286 280 293 295 297 297 298 292 297 293 293 294 287 281 286 288 290 293 293 295 298 300 299 298 299 299 299 299 300 300
296 296 296 296 297 297 298 300 301 300 301 300 295 296 296 298 304 303 302 298 295 296 297 291 293 284 289 289 290 292 292 290 287 290 295 288 283 288 291 292 293 295 296 299 295 295 296 296 297 297 296 297 298 299
295 296 295 296 296 297 298 300 299 299 297 288 284 289 293 299 296 295 292 291 290 288 290 290 289 287 291 286 287 292 286 285 284 287 290 282 280 288 293 294 296 296 297 297 298 299 297 296 295 296 296 296 296 297
295 295 295 296 296 298 299 299 299 292 289 289 290 294 295 292 288 288 287 291 288 285 290 289 289 289 290 292 288 290 285 284 282 290 287 282 287 291 294 295 295 297 297 297 298 298 297 297 296 296 296 296 296 296
294 295 295 296 297 298 299 299 298 298 296 291 292 290 290 289 284 283 280 284 288 294 296 296 293 294 291 292 287 285 282 280 285 278 280 285 290 292 294 295 295 297 298 298 297 298 298 296 296 295 295 295 295 294
294 295 296 296 297 298 298 298 298 296 291 287 287 283 284 281 283 282 285 288 296 296 295 295 292 294 292 289 286 282 285 282 274 276 279 287 291 293 294 295 296 297 297 298 298 298 296 295 295 295 294 295 295 293
295 295 296 296 297 297 297 298 298 293 286 283 287 280 282 286 286 291 294 293 296 296 295 293 291 292 286 290 287 283 282 275 276 277 282 288 292 294 295 295 295 296 297 297 298 297 296 295 294 294 294 294 294 293
296 296 294 296 296 297 298 296 292 289 286 285 284 283 286 285 285 286 288 287 291 291 291 295 290 287 287 286 283 281 277 274 278 281 287 292 294 296 296 298 297 298 298 297 298 298 296 295 294 294 294 293 293 293
295 287 294 295 296 298 297 292 289 289 285 284 283 288 286 285 285 286 287 287 289 288 287 290 286 287 290 283 283 281 278 281 285 287 290 294 295 296 297 299 299 299 297 296 297 297 296 296 296 294 292 292 292 292
289 289 295 296 296 293 291 290 289 286 283 283 284 283 284 286 285 286 287 287 288 288 291 289 295 288 286 283 283 286 287 288 290 291 293 295 296 298 299 299 301 299 297 297 296 296 295 295 293 292 292 292 291 291
291 293 296 297 295 290 285 284 290 282 283 284 285 285 286 286 287 288 288 289 289 291 290 291 289 289 286 289 290 292 291 293 293 294 295 298 298 298 299 301 301 299 297 296 296 295 294 294 293 292 292 291 289 289
296 296 296 296 294 285 283 283 287 283 280 284 286 285 284 285 286 286 287 286 286 289 288 288 288 291 291 293 297 298 298 296 296 293 294 297 300 299 299 300 299 299 297 297 296 294 294 293 292 292 292 291 290 288
292 290 294 291 286 285 283 282 281 281 282 281 286 284 283 283 282 282 282 285 284 284 285 289 290 292 294 295 297 299 298 297 295 295 295 295 297 298 298 299 299 298 297 297 296 295 294 294 293 293 292 290 290 289
288 293 290 289 284 284 282 283 281 283 281 282 282 285 281 281 282 283 285 282 283 289 290 290 291 292 293 294 296 297 298 298 297 297 295 295 295 296 297 297 298 297 297 297 297 297 297 296 295 294 292 290 289 288
292 292 289 288 284 280 277 283 281 283 282 282 282 280 281 281 284 287 282 286 289 291 291 291 292 294 294 295 296 297 297 297 297 296 297 297 297 299 299 299 299 298 298 298 300 298 298 293 293 293 292 291 289 287
292 287 282 282 282 277 282 280 282 283 281 277 276 277 280 283 286 284 283 286 289 292 291 291 291 291 294 294 293 295 296 297 297 297 297 297 297 298 300 299 299 300 301 300 300 299 296 296 292 293 293 291 290 288
280 274 280 267 280 279 278 279 278 277 276 277 278 279 283 286 281 283 283 286 288 289 290 290 290 293 293 294 295 296 297 296 294 294 298 299 298 297 298 298 298 300 301 299 297 297 297 295 295 293 292 291 289 288
273 276 276 278 277 277 278 276 275 275 276 277 279 283 284 282 281 281 284 283 284 286 286 288 288 290 290 292 291 292 293 295 296 294 296 299 299 298 297 297 297 298 300 300 298 297 297 296 295 294 292 289 287 288
273 271 278 282 280 281 279 279 279 275 276 277 278 280 280 277 278 280 286 286 284 286 288 290 291 290 290 291 293 293 295 297 299 298 299 299 298 299 299 298 298 300 301 300 300 300 298 297 295 295 293 291 290 289
279 280 277 277 281 281 279 279 278 277 278 281 281 277 278 278 276 281 285 286 287 288 289 291 292 292 291 292 292 291 291 295 300 300 300 299 299 298 298 297 296 291 300 301 300 301 300 298 297 295 293 291 290 289
278 278 280 278 279 280 280 279 280 281 281 280 278 279 281 280 282 282 284 285 287 288 287 288 290 291 290 290 291 291 289 288 290 290 291 292 293 294 296 295 294 294 295 297 292 296 300 299 298 296 294 292 290 289
278 280 278 279 279 279 282 284 283 285 284 286 287 286 282 282 284 285 284 284 284 285 287 288 288 288 286 286 286 286 288 287 287 286 287 288 291 294 294 294 294 293 293 295 293 291 288 293 291 292 290 288 287 285
281 283 280 278 278 281 283 286 287 287 286 285 286 283 281 282 284 284 283 283 284 286 285 284 285 285 285 284 284 283 283 285 285 286 287 290 291 293 292 293 293 293 292 293 294 294 292 293 292 290 288 286 285 285
282 282 282 281 279 282 285 284 283 285 283 283 281 286 282 280 277 280 283 282 281 281 282 283 282 282 284 285 285 284 284 284 283 283 284 285 287 289 291 291 292 292 291 290 289 289 289 288 288 288 286 285 284 283
279 281 283 283 278 280 284 285 283 280 279 276 278 280 280 278 275 280 283 283 281 280 281 283 283 284 284 283 282 282 282 283 283 282 282 282 282 282 285 288 288 288 288 287 287 287 285 285 284 283 283 282 281 281

GFSWCAN_sfc_thetae_042.txt.gz
Theta_e
307 307 307 305 304 302 301 301 301 301 301 301 302 302 302 303 303 304 302 309 301 293 294 297 297 291 293 291 286 292 291 293 293 290 289 289 285 289 287 290 288 286 285 287 287 283 282 295 291 288 294 296 295 298
307 306 304 303 301 301 300 299 299 300 300 300 300 301 301 301 302 304 300 307 307 297 295 303 302 303 300 297 293 293 292 291 292 292 295 293 289 291 289 285 295 287 289 286 286 288 296 297 292 294 295 293 296 299
306 304 302 301 300 299 299 299 299 299 299 300 300 300 301 301 301 301 301 306 302 295 296 299 299 304 305 303 306 292 294 297 295 298 291 291 288 292 287 290 291 294 297 289 288 294 295 297 298 298 299 298 301 306
303 302 300 300 299 299 299 299 299 299 299 300 301 302 302 302 302 302 300 304 301 295 289 296 305 303 307 306 305 304 303 304 303 299 292 290 289 295 292 293 290 295 296 290 290 293 295 296 297 298 300 302 305 309
301 300 299 299 299 298 298 299 298 299 299 301 302 303 302 302 303 303 302 301 302 295 289 292 301 305 305 306 303 303 301 299 296 293 290 289 293 294 295 293 294 299 295 290 289 295 295 295 300 301 300 301 305 306
299 299 299 298 298 298 298 298 299 299 300 301 302 302 302 301 302 301 295 302 304 301 291 286 303 301 303 306 302 300 301 298 295 294 293 294 298 294 289 292 298 300 301 301 297 300 300 301 302 302 300 302 305 304
298 298 298 298 298 298 298 298 298 299 301 302 301 302 301 302 303 297 296 301 304 303 293 288 292 302 302 304 303 300 299 298 297 294 293 295 297 297 293 290 297 300 301 300 302 301 298 299 297 300 301 303 303 304
297 297 297 297 297 297 297 298 299 300 301 302 302 300 301 305 302 298 304 304 304 297 295 288 291 298 304 301 299 302 297 297 296 295 300 297 299 298 293 298 300 301 302 301 301 301 298 299 299 298 300 302 300 300
297 297 297 297 296 297 297 298 299 300 301 301 299 300 305 302 298 301 306 305 303 297 290 291 288 291 302 301 304 301 300 292 299 294 299 300 294 293 298 298 300 301 301 300 301 299 298 296 297 298 298 299 298 298
296 296 296 296 296 297 297 298 300 300 300 299 298 300 296 301 300 303 300 296 294 294 293 290 297 292 299 299 298 300 298 295 292 298 305 297 296 302 303 302 303 303 303 302 298 296 296 295 296 298 298 299 298 298
296 296 296 296 296 297 297 298 299 299 299 296 293 293 298 302 302 299 293 292 291 289 292 295 296 292 301 294 295 301 295 297 291 297 296 294 296 300 302 302 304 305 304 303 302 301 299 297 297 297 298 299 299 299
295 295 296 296 296 297 297 297 298 297 296 294 295 296 295 294 294 291 290 293 291 290 296 295 295 295 296 302 297 294 291 296 288 298 295 291 300 301 302 303 304 305 304 303 303 300 300 297 297 298 298 298 297 300
295 295 295 296 297 297 298 297 298 298 298 297 293 289 290 292 285 284 283 287 290 297 297 295 292 295 296 297 296 294 291 291 298 293 292 295 302 302 303 304 304 306 305 304 302 302 301 299 298 299 299 299 299 299
295 295 296 296 297 297 297 297 298 297 295 290 288 283 286 286 286 290 290 291 297 295 295 296 295 291 297 292 294 291 296 296 289 287 290 298 303 302 304 304 305 304 304 303 302 303 301 299 299 298 299 299 298 297
295 296 297 297 296 296 297 297 298 298 294 287 288 281 287 292 293 293 294 294 297 297 297 294 296 290 287 289 293 295 290 287 291 291 297 301 304 304 304 305 305 305 305 304 303 303 302 300 300 298 299 299 297 296
296 296 297 295 296 297 297 298 298 294 290 288 287 285 289 288 289 289 291 291 295 295 296 295 293 291 290 292 290 290 289 289 294 300 301 304 306 305 306 306 306 306 306 306 305 304 303 301 300 299 300 298 297 295
295 295 294 296 297 297 297 294 292 287 285 283 285 291 289 289 289 291 291 291 295 293 290 294 288 287 295 289 289 296 293 296 300 301 304 306 307 306 307 306 306 307 307 307 306 305 304 303 302 300 298 298 298 295
295 296 296 297 297 297 297 297 291 288 283 288 286 288 290 291 290 291 293 295 294 292 292 291 295 290 288 287 292 298 300 300 304 305 306 308 307 308 308 306 307 308 308 307 307 306 305 303 301 300 300 300 300 299
295 297 296 296 296 294 288 291 293 285 287 289 290 291 291 292 293 294 294 294 295 295 293 293 290 289 292 296 296 297 299 301 300 303 306 308 309 308 308 308 308 309 308 308 308 306 306 304 302 302 301 301 299 300
296 295 295 295 295 292 285 290 295 288 286 288 290 289 290 290 292 293 294 294 294 292 289 288 290 291 292 293 296 298 299 302 302 301 303 307 308 309 309 309 309 310 309 309 308 302 305 303 303 303 302 301 300 299
295 295 295 295 295 294 290 289 288 290 289 288 290 290 289 291 291 292 291 294 293 291 289 291 292 295 297 298 299 300 299 301 301 301 300 302 307 307 309 309 310 309 308 308 306 304 302 304 304 302 302 301 301 300
296 294 296 295 291 290 290 294 289 290 288 288 289 288 287 287 288 290 294 291 288 290 290 290 290 292 294 296 298 298 299 300 302 303 299 301 304 306 308 309 309 307 307 308 307 306 306 306 304 303 302 301 300 300
294 294 294 291 285 286 284 294 286 288 284 285 287 284 285 286 289 292 287 287 287 289 289 289 289 291 292 295 296 298 298 298 298 300 302 304 306 307 307 308 310 309 308 308 309 308 307 299 300 302 302 301 301 299
293 289 284 285 286 282 288 286 290 287 286 284 283 281 283 286 288 288 283 285 287 289 288 288 288 289 291 292 291 292 297 297 296 297 301 302 303 306 308 309 310 310 311 311 309 308 308 305 299 302 301 300 300 299
283 281 284 278 286 282 280 282 282 283 280 283 281 282 284 288 284 283 282 283 285 286 286 287 288 288 287 287 288 290 292 291 291 292 297 301 303 306 308 310 310 310 311 310 308 308 307 306 304 303 302 301 300 299
278 281 281 282 284 282 283 279 280 281 282 280 282 286 288 285 282 280 282 284 285 285 285 285 286 286 286 287 286 286 287 290 290 292 298 300 300 303 306 307 308 308 311 311 310 308 306 305 304 303 302 299 291 299
277 280 285 290 289 287 285 286 286 285 280 280 284 283 284 279 279 283 286 287 285 285 288 289 288 287 286 287 288 287 288 288 290 297 296 297 297 298 299 299 302 306 311 311 311 310 307 305 304 304 303 302 300 300
285 285 282 285 285 286 281 282 281 281 284 288 286 281 279 278 279 284 286 288 288 289 290 290 290 291 290 290 289 288 288 287 290 292 293 293 294 294 294 297 302 291 305 310 310 310 309 307 306 304 304 302 301 301
284 288 287 282 282 282 283 283 284 288 291 289 285 282 283 284 285 284 286 287 289 288 286 286 287 290 290 291 292 290 288 286 284 283 284 284 285 287 289 292 295 301 304 308 291 297 308 307 307 306 303 300 299 300
285 289 284 283 282 283 287 290 289 291 291 291 290 287 285 284 286 288 288 287 286 285 286 287 287 286 286 286 286 289 290 288 286 283 281 282 284 287 288 288 289 293 300 306 307 305 289 301 297 300 298 298 297 295
289 288 284 285 285 289 292 293 292 291 289 290 290 287 285 284 286 287 285 286 287 287 286 285 285 285 284 284 284 284 284 287 287 287 287 287 287 288 288 288 287 288 293 298 302 303 303 302 302 299 297 295 294 292
287 285 284 282 286 291 293 290 289 287 287 286 285 286 285 284 281 282 284 284 284 282 282 283 283 283 285 286 286 286 284 286 286 285 285 286 287 287 288 289 290 290 289 290 290 290 290 290 290 290 289 290 290 290
284 285 285 286 286 284 289 288 286 284 285 284 284 285 284 283 278 281 286 285 284 282 283 284 286 287 286 286 285 285 285 286 284 283 282 283 282 282 286 289 289 288 288 287 287 287 286 284 283 282 283 283 283 283

GFSWCAN_sfc_thetae_045.txt.gz
Theta_e
307 307 307 305 304 302 301 301 300 300 300 301 301 301 302 302 302 302 303 308 302 297 299 300 300 295 294 294 289 295 294 294 296 292 291 290 290 292 290 293 291 289 286 287 287 285 283 299 293 287 294 298 296 298
307 307 305 304 302 301 300 300 300 300 300 300 301 301 301 302 302 302 298 305 310 300 298 304 303 304 302 299 295 294 294 293 295 292 294 294 290 294 292 286 297 289 292 286 286 289 299 299 296 299 298 295 297 297
307 306 304 301 301 300 300 300 300 300 300 300 301 302 303 303 303 302 301 302 304 299 298 300 299 305 310 307 306 293 295 299 297 302 293 291 288 294 289 292 294 297 299 293 290 295 296 298 299 299 299 298 300 302
306 304 302 300 300 300 299 299 300 299 300 300 301 302 303 304 303 303 301 304 304 298 289 298 307 303 307 307 306 305 303 303 304 300 294 291 288 298 294 294 294 297 298 295 293 296 296 297 298 300 300 300 301 307
304 302 300 300 299 299 299 299 299 299 300 300 301 303 303 302 303 302 302 302 302 296 290 294 302 307 309 308 304 304 303 301 298 294 292 289 294 294 295 296 293 299 297 293 290 296 294 296 300 301 298 297 302 303
302 300 299 299 299 299 299 298 299 299 300 301 302 303 302 302 301 301 296 306 306 303 291 288 304 304 307 308 305 303 302 300 298 294 293 295 300 296 290 290 299 302 303 303 298 300 298 298 299 300 296 298 303 303
300 299 298 299 298 298 298 298 299 299 300 301 302 302 301 301 302 299 298 302 306 303 292 290 293 302 306 305 304 302 303 299 297 294 293 295 298 297 295 293 300 301 301 303 301 300 296 296 295 298 299 301 303 304
299 298 298 298 298 297 298 298 299 300 301 301 302 302 300 303 303 299 304 304 306 298 296 289 292 298 307 302 300 303 297 297 298 295 297 296 300 299 295 300 301 302 301 301 299 300 297 297 297 299 300 301 300 300
298 297 297 297 297 297 297 298 298 299 301 301 302 302 304 302 298 302 306 306 305 298 290 291 291 294 304 301 304 304 303 292 298 292 297 301 297 295 299 301 300 301 300 300 300 299 297 295 297 297 297 299 298 299
297 297 297 297 297 297 297 298 298 299 301 301 302 302 299 302 301 304 299 297 295 295 293 289 298 293 299 299 298 300 302 296 293 298 304 298 297 303 304 303 304 303 303 302 297 295 294 294 295 297 296 298 298 299
297 296 296 296 297 297 298 298 299 299 301 299 296 296 301 303 300 300 294 292 291 288 292 294 296 292 300 294 296 302 298 298 291 297 296 296 298 300 303 303 304 305 305 303 301 300 298 298 297 297 297 298 298 298
296 296 296 296 296 297 298 298 298 299 297 296 296 297 297 294 294 290 290 293 292 291 297 294 296 298 299 301 298 301 294 297 291 300 295 293 298 303 302 303 304 305 304 303 302 300 299 299 299 299 299 298 298 298
295 295 296 296 296 297 297 297 298 298 299 301 294 291 291 292 285 285 285 290 291 298 298 299 295 296 297 298 297 297 292 293 301 295 293 295 301 303 303 304 303 305 304 302 302 301 300 300 301 299 299 298 299 297
295 295 296 296 297 297 297 297 298 298 298 293 289 287 288 287 290 292 290 292 296 295 298 297 295 298 296 292 294 290 297 300 292 289 291 297 302 302 305 304 304 303 304 303 303 301 300 299 299 299 299 298 297 297
295 296 297 298 297 296 297 297 298 300 296 289 290 282 288 292 293 296 296 296 296 296 297 295 296 299 293 287 291 296 292 290 293 294 299 302 306 304 304 305 304 305 304 304 304 302 300 300 299 299 299 299 298 298
296 296 298 294 296 297 298 299 300 298 294 291 289 287 290 289 289 291 293 294 297 294 296 296 293 292 290 286 290 291 290 289 296 301 303 306 308 308 306 307 305 306 306 305 305 303 301 301 300 301 301 298 298 296
294 297 295 296 297 297 298 298 295 289 291 287 288 292 291 290 289 289 293 293 298 293 289 292 288 288 295 290 290 295 293 298 302 305 307 308 307 309 308 307 306 308 307 306 306 304 302 303 302 301 299 300 298 297
296 298 296 297 298 300 300 298 295 292 286 290 288 290 292 292 291 292 293 294 293 292 290 288 292 289 287 287 291 292 293 298 303 301 305 309 309 309 308 308 307 308 308 307 307 306 304 303 302 301 302 303 301 298
297 298 296 296 296 296 293 294 296 288 290 291 293 293 293 293 295 295 294 295 295 296 292 291 289 289 290 290 291 293 296 298 299 302 307 309 308 309 309 309 308 308 308 308 308 306 305 304 303 303 302 302 301 300
296 295 295 295 295 296 288 293 298 291 288 291 292 291 292 292 294 295 295 295 294 293 290 289 290 291 292 294 297 298 299 301 301 300 302 305 307 306 309 310 311 308 310 309 308 302 305 303 304 304 303 302 301 299
293 296 295 297 298 297 293 293 291 294 292 290 291 292 291 294 293 293 294 297 293 290 288 288 287 290 294 296 298 299 300 300 298 300 301 303 305 305 308 309 310 308 307 307 305 305 303 305 304 303 304 302 302 302
298 294 298 296 294 293 293 297 292 293 292 291 290 292 290 290 290 291 293 289 287 287 288 287 288 289 290 293 294 297 298 299 300 301 299 302 304 304 308 309 310 308 307 307 306 306 306 307 305 304 304 302 301 301
294 295 296 294 288 289 287 298 289 291 286 287 290 287 288 290 292 297 289 289 289 291 290 289 289 291 291 292 293 294 295 295 297 298 300 303 306 306 306 308 308 308 307 308 310 308 307 300 302 304 303 303 303 301
292 292 288 288 289 285 291 289 292 289 289 288 286 284 287 290 294 290 285 287 288 290 289 288 289 289 290 289 288 288 290 292 293 297 300 300 301 304 308 309 310 309 309 311 310 309 307 308 301 305 304 303 301 301
285 284 287 282 289 285 283 284 285 286 282 285 284 285 288 292 288 285 283 285 287 287 287 288 288 288 287 287 288 287 289 288 287 288 293 297 300 303 307 311 311 310 312 309 309 307 308 308 307 306 305 304 302 302
280 284 284 286 287 285 286 281 282 283 285 283 285 290 291 289 283 281 284 286 286 286 286 287 287 287 288 289 286 286 286 288 287 291 294 295 293 293 295 300 301 307 304 307 311 308 308 308 307 306 305 302 292 302
280 282 288 294 293 291 288 290 291 288 283 282 288 286 287 280 281 284 288 289 287 288 291 291 290 289 289 290 290 290 290 289 289 291 293 293 293 291 291 291 292 298 299 307 310 309 308 308 308 307 306 306 304 304
287 289 285 288 289 291 284 286 284 283 286 290 289 282 280 280 282 286 287 289 290 290 290 290 291 291 291 292 293 291 290 291 291 292 292 291 291 291 290 291 293 290 299 305 309 309 309 309 309 308 307 306 305 305
288 291 290 286 286 286 286 286 287 291 292 291 287 286 284 286 286 287 288 290 291 290 287 287 288 290 290 290 291 291 291 290 286 285 285 286 285 286 289 290 291 294 298 301 294 296 303 309 309 308 308 307 307 306
288 292 287 287 284 284 289 291 290 292 293 294 291 289 286 286 289 291 289 289 287 287 288 288 289 289 288 287 286 288 291 291 290 286 283 284 286 288 290 291 290 289 291 294 297 300 290 304 301 306 303 303 300 296
292 291 288 288 287 291 292 293 293 293 294 291 295 290 286 285 287 288 288 289 288 287 286 285 286 288 287 287 286 285 285 289 288 288 287 289 290 290 291 291 292 291 290 289 288 288 298 304 305 305 304 300 296 294
290 289 287 285 288 293 293 291 291 290 289 289 288 289 287 286 283 285 286 286 285 284 283 285 284 285 288 289 289 288 285 288 287 286 286 286 287 290 292 293 292 292 291 289 287 285 284 286 289 291 290 290 291 291
289 290 289 289 288 287 290 289 288 287 287 286 287 288 288 286 280 284 287 287 285 284 285 286 287 288 288 288 288 288 287 289 286 282 284 283 283 284 288 290 292 291 289 288 286 285 284 284 283 283 282 283 284 284

GFSWCAN_sfc_thetae_048.txt.gz
Theta_e
306 307 307 307 305 304 302 301 301 301 301 301 301 301 302 302 302 301 300 306 301 296 297 300 300 297 296 295 289 295 293 295 294 291 291 291 290 292 292 293 291 290 287 287 287 284 282 297 296 287 293 296 296 297
306 307 307 306 304 302 301 301 300 300 300 301 301 301 302 303 304 303 297 304 305 299 299 304 303 304 302 301 296 296 293 293 293 293 293 292 291 293 291 286 296 289 293 287 288 290 298 301 298 299 300 296 297 297
306 307 307 305 302 301 301 300 300 300 300 300 301 301 303 304 304 304 300 301 301 297 297 299 299 306 309 307 309 294 295 298 297 303 294 292 287 294 288 290 292 296 300 294 292 295 296 296 300 300 300 299 299 300
306 307 306 303 301 301 300 300 300 300 300 300 301 301 302 304 303 302 299 301 300 298 290 296 306 303 307 309 308 304 302 302 302 299 294 291 287 296 292 294 294 297 299 296 295 297 298 297 298 298 298 299 298 299
306 306 304 302 301 300 300 299 299 299 300 300 301 302 302 303 303 302 301 301 302 295 290 292 300 305 309 307 306 305 303 302 300 295 292 290 293 294 296 295 294 299 295 293 290 296 292 294 297 298 296 296 298 299
306 305 302 300 300 299 299 299 299 299 300 301 302 302 302 302 301 300 296 306 305 303 291 286 301 301 305 307 304 303 302 300 299 295 293 295 300 295 290 289 298 301 302 303 297 299 298 297 297 298 297 298 300 301
305 303 301 300 299 299 299 298 299 299 300 300 301 302 302 303 301 297 297 301 305 303 292 288 294 303 305 305 306 304 304 300 298 294 291 293 296 297 293 290 299 301 301 302 300 298 293 295 294 298 298 298 302 302
304 301 299 299 299 298 298 298 299 299 300 300 301 301 303 303 302 298 305 304 306 299 296 288 291 297 306 301 301 304 298 298 296 294 296 294 298 298 291 299 301 302 302 300 299 299 297 297 298 298 298 299 299 298
302 300 298 298 298 298 298 298 299 299 301 301 302 302 302 302 300 303 306 307 306 299 290 290 289 291 306 303 303 302 303 293 299 292 293 297 295 293 299 300 300 301 300 299 298 298 297 296 296 297 296 297 296 297
301 299 298 297 297 297 298 299 299 299 300 302 302 301 297 298 300 303 302 297 294 295 293 288 295 291 297 297 299 300 301 296 292 296 300 298 296 302 302 305 304 303 301 300 296 295 296 295 295 296 295 297 297 297
299 298 297 297 297 297 298 298 299 299 300 298 295 295 300 304 299 297 294 292 292 288 291 293 295 292 300 293 296 302 298 299 292 296 296 295 296 301 304 303 305 305 303 301 300 299 298 297 297 296 295 297 297 298
298 297 297 296 297 297 298 298 298 297 296 295 295 298 300 297 294 290 292 295 294 292 296 296 299 299 300 303 297 301 295 297 290 300 295 292 297 301 304 304 305 304 303 301 301 299 299 298 299 296 296 297 296 297
298 297 296 296 296 297 298 298 298 298 299 301 296 293 294 293 286 286 285 290 289 291 293 292 291 299 298 300 296 297 292 293 301 294 293 296 300 303 305 305 305 305 303 302 300 300 300 298 299 297 295 297 297 296
297 296 296 296 297 297 298 298 298 298 298 294 290 284 288 288 290 291 291 291 296 296 296 296 294 294 298 293 293 290 296 298 291 289 288 295 303 303 305 305 305 304 303 302 301 300 299 298 297 298 297 298 297 295
296 296 296 297 298 297 297 298 299 299 297 291 290 283 288 292 292 292 293 293 295 296 295 293 294 297 294 290 290 289 291 289 292 292 296 302 305 305 306 305 305 305 305 303 302 300 299 299 297 296 297 297 297 296
296 295 296 297 295 296 298 299 300 299 295 291 290 287 290 290 289 291 291 291 296 296 297 297 293 292 291 290 288 288 289 288 293 298 301 305 306 306 308 307 306 306 305 305 303 302 301 300 299 298 297 297 296 295
295 294 297 296 297 298 298 298 297 291 291 288 289 294 292 291 290 290 292 292 296 294 290 290 289 288 292 290 286 285 285 287 295 299 302 304 305 307 308 308 308 308 307 306 304 303 302 303 303 301 297 297 297 296
294 296 297 296 297 301 300 299 295 292 288 292 289 291 292 293 291 293 293 295 293 292 291 287 291 287 286 285 285 288 294 298 300 300 299 302 307 305 307 308 308 307 306 306 305 305 303 303 301 302 301 301 300 299
296 298 296 295 296 296 293 294 297 289 291 292 293 294 293 294 296 296 296 297 297 296 294 291 288 287 285 289 290 293 296 297 298 300 301 306 307 304 304 306 309 308 308 308 307 304 304 306 303 303 301 301 299 299
296 296 295 295 295 296 290 293 298 292 289 292 294 292 293 294 296 296 298 297 297 294 291 288 284 286 286 289 293 294 296 298 298 297 298 302 307 305 306 305 308 309 307 308 307 301 303 303 303 303 302 301 300 299
294 298 296 296 298 297 294 294 292 294 293 291 293 293 292 295 295 293 292 294 290 286 284 286 286 288 291 292 295 295 297 297 296 297 297 299 302 305 307 308 307 308 306 306 305 304 301 304 302 304 303 301 301 301
297 296 298 297 294 294 293 296 293 294 292 292 292 293 292 291 290 292 293 289 287 287 288 288 288 288 290 290 291 293 294 295 297 298 297 298 300 303 305 307 307 305 306 308 307 305 305 304 304 304 301 300 300 301
295 296 296 295 289 289 287 297 290 292 288 289 292 289 290 291 294 297 289 289 289 291 290 289 290 291 291 291 291 291 291 291 293 295 297 298 300 303 305 306 310 307 306 307 308 309 307 299 302 303 302 302 301 300
293 294 290 289 289 286 292 290 292 290 290 289 288 286 288 291 295 291 285 287 289 291 289 288 290 289 290 289 288 288 288 288 288 290 293 292 294 298 301 305 308 308 308 307 309 309 307 307 300 303 303 301 300 301
287 285 288 284 290 287 285 286 287 287 285 286 285 286 289 293 288 285 284 286 287 287 288 290 290 289 288 289 289 288 290 288 286 286 291 293 292 293 295 297 301 303 300 304 305 308 309 308 306 305 304 302 301 301
281 285 285 286 287 286 287 284 284 285 286 285 286 291 292 289 284 282 285 287 286 287 288 288 288 288 289 291 289 287 287 290 288 289 290 291 290 287 287 288 290 294 299 296 303 306 307 307 307 306 304 302 292 301
280 283 289 294 292 291 289 290 291 288 285 284 288 287 287 281 282 285 289 289 288 290 291 291 290 289 289 291 292 293 292 291 291 291 293 292 291 291 288 287 287 290 292 296 301 301 305 308 306 306 305 305 304 304
286 289 286 289 290 291 287 287 286 285 287 290 289 284 282 282 283 285 287 290 291 291 290 291 292 291 290 291 292 292 293 292 292 293 293 293 293 292 291 292 292 288 292 295 297 302 304 307 306 305 305 306 305 306
288 292 292 287 289 288 288 287 287 290 293 291 287 287 286 288 288 289 290 291 292 290 288 288 289 292 292 291 291 291 291 291 287 284 284 286 287 288 290 291 291 291 291 292 291 293 297 300 308 307 306 305 307 307
289 293 289 288 286 285 289 292 292 294 295 293 292 290 288 287 290 292 291 290 289 288 288 289 289 289 288 288 288 288 290 289 289 287 284 284 285 290 291 291 290 291 291 290 291 295 291 299 298 305 304 302 302 297
293 292 289 289 287 290 293 295 295 294 293 293 293 289 286 286 288 289 289 289 289 288 287 286 287 288 288 288 287 286 285 288 287 287 287 288 290 291 291 292 292 291 291 289 288 288 290 290 290 299 304 299 296 296
291 289 288 286 288 293 295 292 291 290 290 290 289 289 287 286 283 285 287 287 285 284 284 285 285 286 288 289 289 289 285 288 287 286 285 285 286 288 290 292 291 291 289 288 287 286 286 285 284 283 285 289 291 292
291 291 290 289 289 289 292 291 290 288 289 288 288 289 288 287 281 284 287 288 286 286 286 288 288 289 289 289 289 288 287 289 286 283 284 283 282 284 287 287 291 290 287 287 286 286 284 284 284 283 282 281 282 283